GFSFLT1_sfc_rhum_021.txt.gz
RH
38 45 46 49 55 53 54 65 76 72 62 54 58 60 57 59 59 59 53 59 59 63 60 66 66 68 71 74 75 71 77 76
41 44 50 56 46 45 51 56 56 54 52 55 58 58 56 55 54 50 58 56 58 60 67 66 69 68 71 71 77 79 67 77
44 51 59 60 51 49 48 48 49 51 55 57 60 62 59 60 60 58 60 58 59 49 64 65 68 74 75 78 76 74 79 79
47 49 58 56 56 50 47 49 50 55 55 59 59 60 62 61 59 58 57 58 54 57 61 68 72 74 80 80 80 82 94 89
47 53 58 58 62 57 50 48 49 54 55 59 62 68 66 68 67 67 60 57 55 53 59 65 71 75 78 84 82 92 89 94
50 54 54 57 57 57 53 50 50 54 56 60 66 67 69 68 71 66 64 61 61 56 58 70 78 86 92 93 92 82 82 83
44 48 50 56 58 57 57 54 51 56 54 61 70 69 67 71 69 71 69 69 69 66 70 81 87 88 89 90 84 81 83 82
46 46 46 51 55 58 54 55 51 57 61 67 66 68 70 71 70 71 69 74 72 75 72 86 89 87 89 91 91 88 90 91
43 42 44 51 55 57 57 52 49 56 60 63 66 65 73 70 66 68 70 78 78 73 76 84 82 84 85 86 90 90 92 94
40 48 53 53 56 58 59 54 51 53 61 62 61 63 66 65 64 72 80 76 61 70 76 79 77 80 83 84 91 94 94 95
50 53 56 57 57 60 56 52 50 51 54 56 58 57 58 63 75 73 73 72 71 70 74 79 83 84 86 87 91 89 94 96
56 56 55 53 54 54 55 48 49 52 53 54 53 54 57 70 72 72 69 71 70 68 74 73 76 83 83 86 86 86 90 90
55 55 54 54 54 51 48 50 50 52 48 48 48 52 55 66 68 68 67 68 65 66 63 58 60 60 65 72 76 72 70 68
55 55 57 54 49 45 46 47 53 48 44 47 47 50 57 63 64 68 63 64 62 57 54 58 59 63 59 62 67 69 69 66
60 62 60 52 46 44 42 44 50 48 45 47 48 54 57 61 62 62 61 60 57 51 53 56 60 58 59 62 61 71 71 66
59 60 61 50 44 45 43 44 47 52 50 51 54 57 58 61 65 71 65 59 56 50 52 58 60 56 54 73 72 76 77 76
59 55 47 45 39 38 37 42 48 52 51 52 55 67 64 69 76 68 76 58 51 53 56 59 65 50 74 70 74 81 75 74
58 54 50 43 39 37 43 41 42 44 40 53 58 67 72 76 79 81 71 53 56 60 61 66 70 75 74 69 73 79 81 78
58 57 53 37 39 41 41 38 40 42 47 60 65 69 74 81 83 81 68 59 56 62 69 74 77 64 74 76 81 90 88 84

GFSFLT1_sfc_rhum_024.txt.gz
RH
53 56 55 58 70 84 85 86 86 80 72 65 71 64 62 65 66 63 63 64 65 69 66 72 72 72 74 78 79 79 82 76
53 59 58 53 52 56 69 70 67 66 72 70 64 68 63 63 60 62 56 53 55 58 64 67 75 75 78 77 84 81 69 80
54 64 71 72 62 64 60 63 57 57 62 66 64 67 67 68 64 58 56 54 57 49 69 72 74 76 76 79 81 86 87 95
55 55 73 78 68 66 54 55 56 59 60 61 64 66 68 70 70 65 58 59 61 64 69 76 81 84 90 93 94 93 96 94
54 59 62 61 63 60 57 55 58 57 59 62 63 68 70 75 75 70 66 67 66 62 75 84 88 92 94 94 87 88 84 88
60 57 59 60 58 59 60 57 57 61 66 70 74 75 75 76 73 67 65 68 66 70 74 84 91 91 94 94 93 93 93 94
59 60 60 63 67 66 64 60 63 64 68 70 71 71 74 71 69 71 72 76 77 75 72 91 92 92 93 95 94 92 94 94
61 60 62 64 67 66 62 58 64 66 70 70 71 72 69 66 67 68 70 78 80 79 80 88 90 91 88 85 90 90 93 96
57 58 63 62 62 65 62 58 61 66 69 67 69 71 74 70 68 72 82 80 78 73 79 85 87 86 83 89 93 94 94 96
61 60 62 63 65 63 57 53 60 60 59 64 64 70 70 71 72 80 80 77 69 69 76 83 86 88 89 91 95 93 94 95
60 60 60 60 58 63 62 58 55 58 60 60 56 58 65 72 80 78 77 75 73 73 69 76 81 87 89 91 93 91 92 94
61 59 55 56 58 53 56 54 54 56 54 55 56 56 59 76 76 76 75 73 74 71 70 75 65 69 72 79 84 82 82 75
61 59 59 56 52 50 53 51 53 55 54 52 53 55 56 74 76 77 77 72 69 64 66 57 58 60 64 68 74 72 72 73
62 64 63 59 53 50 46 48 51 57 54 53 51 52 56 66 72 74 76 76 70 76 56 56 58 62 65 70 71 72 73 73
65 64 63 60 51 48 47 46 52 57 58 55 58 63 62 67 70 69 75 83 83 67 54 55 61 64 64 65 67 74 76 72
61 61 62 55 49 44 44 49 53 54 51 59 67 69 68 66 69 75 86 86 78 74 59 58 62 65 58 75 73 75 77 77
64 61 56 54 51 45 45 45 46 49 51 62 67 71 74 81 85 88 90 89 85 64 63 65 69 55 76 70 75 84 77 76
63 61 61 60 44 43 43 42 44 47 62 69 76 80 79 82 86 90 87 93 94 87 69 71 77 76 74 74 80 84 86 88
60 56 48 44 42 41 42 40 43 60 73 75 80 85 86 90 95 92 97 98 97 72 81 83 81 68 78 84 84 95 96 94

GFSFLT1_sfc_rhum_027.txt.gz
RH
61 64 78 90 89 87 90 90 90 81 84 73 65 62 63 68 66 60 62 62 64 64 64 67 69 68 70 72 79 82 81 82
66 62 61 68 76 74 78 76 74 81 83 82 72 83 74 71 60 63 63 58 59 68 71 75 80 80 83 84 86 86 85 93
61 69 76 76 76 77 63 61 58 61 64 71 67 73 75 71 68 66 62 63 63 66 79 82 86 87 90 95 96 96 96 96
67 71 82 81 68 61 56 57 57 60 64 66 68 69 74 73 71 68 68 67 68 76 81 85 89 92 94 95 96 94 98 95
66 72 74 69 66 63 61 61 61 61 63 64 63 66 75 80 75 72 70 69 73 73 78 86 88 94 93 94 87 95 95 97
66 63 60 61 64 68 66 65 66 68 68 70 77 75 75 75 72 67 67 71 73 70 78 89 90 93 93 92 92 92 94 94
63 64 63 66 68 71 68 70 71 71 70 70 72 74 74 71 71 70 73 78 79 75 77 92 91 92 92 94 94 93 94 96
69 62 62 62 69 72 66 68 70 71 72 73 73 73 70 67 66 71 72 80 82 76 78 90 93 92 93 94 94 93 93 96
63 68 68 66 66 68 66 66 68 71 70 71 72 70 72 70 69 75 78 83 80 76 74 89 90 92 93 92 94 95 94 96
67 67 68 66 63 61 62 64 70 70 68 70 71 76 76 77 75 78 84 84 74 80 76 85 87 90 92 93 96 95 94 95
67 66 65 62 60 62 63 64 61 60 60 62 60 64 70 76 79 81 83 82 79 78 76 78 78 79 86 90 93 92 92 94
67 61 56 55 53 55 60 59 57 59 61 61 64 64 64 70 81 83 82 82 79 74 74 75 70 67 70 74 76 79 74 73
63 58 55 51 54 52 58 55 56 58 62 63 61 62 61 65 78 81 84 83 75 77 78 80 78 67 64 66 70 70 72 74
64 64 63 60 55 50 49 52 54 60 62 60 62 67 70 72 72 75 79 81 83 84 84 86 73 65 64 70 72 72 72 74
67 65 62 55 49 52 49 52 59 56 55 62 67 71 72 73 73 74 77 82 91 91 87 73 70 68 64 65 68 73 76 74
63 63 57 59 61 50 48 49 50 52 58 65 74 76 77 80 83 84 87 93 90 87 83 79 72 66 58 71 73 75 79 80
60 62 62 65 48 46 43 43 47 50 61 72 75 77 79 82 86 92 94 90 80 92 91 84 73 58 75 74 82 90 82 81
68 67 63 48 45 43 42 44 48 52 71 73 77 84 86 89 94 95 90 90 94 94 91 79 79 76 76 79 81 88 93 96
62 48 46 46 44 42 45 45 48 71 73 74 78 82 86 91 96 87 91 92 97 91 86 81 80 77 74 69 85 92 91 88

GFSFLT1_sfc_rhum_030.txt.gz
RH
69 90 98 97 97 95 95 93 95 90 89 82 68 68 70 68 69 68 65 62 64 66 69 81 80 83 88 90 89 87 87 95
75 77 79 79 90 90 92 86 86 88 83 80 80 84 76 72 67 65 59 60 68 75 81 82 84 84 91 92 95 94 94 92
74 76 81 83 89 87 84 82 86 72 74 75 73 77 76 72 70 70 67 71 72 73 82 84 84 81 86 94 95 94 94 96
76 82 84 84 83 65 60 61 61 66 72 71 79 79 80 72 71 71 71 72 74 76 78 77 82 89 93 94 94 93 97 95
79 76 69 66 69 67 65 65 66 65 68 69 72 73 80 81 75 74 71 72 75 75 79 81 85 92 89 92 87 92 92 93
71 72 69 69 68 68 73 70 68 68 68 70 78 79 80 79 76 71 74 75 76 71 76 85 89 92 91 91 92 92 95 96
68 67 67 71 71 64 67 66 71 73 73 74 73 74 75 75 74 75 75 79 80 77 77 91 91 92 93 94 93 94 94 95
73 70 68 69 68 65 70 73 74 73 74 74 75 74 71 68 68 74 74 78 84 83 79 90 94 92 93 94 96 96 95 95
72 69 72 75 71 71 69 69 74 74 74 73 73 72 76 75 71 75 78 79 80 79 78 81 89 91 94 93 96 96 94 96
71 73 74 74 70 67 70 68 74 72 68 69 73 77 80 81 79 83 85 83 77 83 83 79 88 88 90 93 95 96 94 95
74 72 71 69 65 62 68 70 68 68 70 73 68 70 70 73 80 82 83 87 86 82 83 76 78 82 78 88 91 87 92 93
71 66 62 59 52 54 63 63 59 61 65 68 69 69 68 70 74 80 85 87 84 82 82 82 83 87 81 82 80 78 82 76
69 64 58 56 53 56 58 53 53 60 69 65 61 66 69 70 73 76 82 87 86 85 83 87 89 85 78 74 74 73 74 72
68 67 62 54 53 56 48 53 60 59 56 59 66 69 73 77 78 79 79 82 87 90 89 88 86 78 72 72 74 71 70 74
69 66 57 60 52 48 51 54 56 52 56 64 72 78 79 81 80 80 87 91 94 93 87 95 87 73 67 66 67 73 78 76
66 66 64 56 61 50 47 48 50 53 54 68 77 78 79 81 84 90 94 95 92 83 79 84 84 70 61 73 78 84 86 86
63 61 61 63 48 47 45 44 48 54 56 75 77 80 82 86 91 96 93 92 88 92 93 90 78 63 77 78 86 91 86 86
62 61 55 49 45 44 43 45 51 55 74 74 75 81 87 88 93 95 88 95 96 96 88 81 80 85 79 69 78 81 81 81
62 52 48 47 46 44 48 48 51 72 72 71 71 80 84 89 92 87 91 93 87 93 87 81 83 76 66 64 73 86 86 81

GFSFLT1_sfc_rhum_033.txt.gz
RH
67 79 86 81 79 80 83 90 91 96 97 88 72 61 56 52 50 46 48 48 55 52 51 54 47 44 47 50 54 49 56 54
70 77 85 86 87 81 80 94 98 94 88 71 55 58 51 50 45 49 51 51 51 52 46 48 48 47 56 58 51 54 44 55
72 72 78 80 89 94 90 82 79 63 50 51 49 49 49 48 48 51 50 53 50 49 51 48 52 44 54 59 59 47 48 59
69 74 78 83 84 79 68 63 59 54 53 54 53 53 52 48 48 45 49 53 49 51 52 50 52 51 48 57 57 55 46 49
62 63 63 61 60 59 56 54 51 53 57 53 55 48 50 51 50 48 46 54 52 48 52 56 57 55 54 52 50 54 57 50
56 50 49 48 54 54 54 52 52 53 51 54 53 57 55 52 52 54 55 55 58 54 54 58 59 55 56 61 65 66 61 59
51 49 50 50 54 58 60 53 56 57 57 59 59 59 56 51 52 52 51 52 53 57 55 60 62 62 66 64 69 70 67 65
51 52 52 53 53 56 57 52 54 57 58 57 57 56 56 53 51 50 53 50 50 52 60 62 61 66 68 69 71 71 70 68
54 54 54 53 54 54 54 52 55 55 56 53 53 54 53 54 58 56 56 56 56 62 63 63 61 64 68 70 66 69 75 76
55 56 58 58 56 56 58 54 56 58 54 54 59 58 58 58 58 60 58 60 54 58 64 64 62 63 63 64 63 65 68 70
58 57 60 54 52 54 56 56 63 55 52 56 52 52 52 53 55 56 55 55 56 58 58 60 63 62 63 66 68 60 61 67
59 55 53 47 44 46 52 56 47 47 50 53 52 49 51 52 51 53 54 57 53 58 61 65 65 69 72 68 65 59 58 57
52 48 45 42 41 50 54 44 44 48 47 44 46 48 48 50 52 52 54 54 58 60 66 66 69 76 80 64 56 58 58 58
52 49 45 42 46 47 39 45 43 38 36 37 45 50 51 53 52 54 58 62 66 72 72 73 70 64 62 58 58 58 54 56
50 50 46 44 42 40 42 43 40 36 36 40 50 56 55 55 56 60 67 72 71 70 71 78 82 67 58 55 52 56 60 59
53 50 48 46 47 43 39 37 38 38 38 46 57 58 57 59 61 66 73 71 66 72 72 73 62 53 50 62 62 61 58 54
53 51 48 52 46 37 37 35 37 41 42 51 58 58 59 62 63 70 76 72 73 75 75 64 60 53 79 71 68 56 51 47
51 52 53 47 37 38 34 34 39 42 49 58 56 58 58 61 61 66 66 72 73 80 70 60 58 61 66 64 76 54 51 49
56 54 46 38 35 33 37 35 39 47 56 54 53 56 60 59 60 60 64 76 76 76 66 60 57 50 64 64 66 52 53 50

GFSFLT1_sfc_rhum_036.txt.gz
RH
42 45 39 35 45 59 67 71 78 91 98 92 68 57 53 48 44 43 43 44 45 41 37 40 33 30 30 34 39 33 32 35
47 55 55 52 64 69 68 77 97 97 91 79 64 53 49 43 38 42 42 41 38 36 30 34 33 34 38 38 33 35 32 36
53 56 61 66 62 64 74 72 84 72 60 48 40 40 38 37 37 43 41 39 35 32 35 32 36 31 38 42 44 39 32 34
54 60 62 69 70 68 63 61 58 49 42 40 41 42 42 38 38 38 38 39 34 35 36 36 39 38 34 42 42 45 41 36
53 54 60 61 60 57 48 46 42 41 43 38 41 33 36 36 39 38 32 40 37 32 35 41 43 40 43 41 35 48 46 44
45 40 42 43 50 50 44 42 39 41 41 41 42 42 42 40 40 40 38 37 40 37 38 42 44 41 45 50 52 50 45 49
36 32 34 36 39 44 45 40 39 41 42 45 46 47 42 37 34 33 30 32 34 36 39 46 48 49 52 52 53 56 56 56
34 34 35 39 44 46 43 39 42 44 45 44 44 40 37 35 36 35 41 36 37 40 45 47 46 48 51 53 57 57 58 59
33 35 36 38 41 42 40 38 40 41 43 42 40 39 34 34 39 41 41 40 39 41 40 39 39 40 45 52 53 54 52 56
34 37 39 40 41 45 45 40 39 45 51 47 46 41 41 40 42 40 36 37 30 34 38 37 37 39 44 48 54 56 49 49
36 38 44 43 41 46 47 42 42 53 50 44 38 39 38 36 36 36 36 35 35 37 38 39 41 43 45 51 55 60 55 52
38 40 43 42 39 38 40 44 46 46 41 42 40 34 34 34 34 35 36 39 38 39 41 44 44 46 52 69 80 73 52 51
40 42 42 38 35 34 41 43 39 40 38 34 32 30 30 33 34 35 40 42 42 43 47 47 48 56 57 53 55 56 55 54
41 41 38 35 35 38 41 42 40 30 26 25 27 31 32 34 36 40 42 43 45 48 48 57 58 60 60 59 56 49 47 47
39 38 36 34 36 39 37 37 32 27 24 23 28 35 37 38 41 43 44 46 49 47 50 57 61 53 49 45 43 47 47 45
40 38 36 33 34 33 31 32 30 27 25 26 31 39 41 41 46 45 47 52 50 49 55 57 52 45 41 53 47 46 46 44
40 38 36 34 34 34 32 29 28 27 28 30 35 44 42 45 46 48 50 51 49 53 53 53 52 38 76 65 66 45 41 39
40 38 36 35 36 31 30 25 28 30 29 34 41 43 44 44 43 43 44 48 52 59 58 55 53 52 62 62 63 43 41 41
41 37 36 35 29 26 26 24 27 30 34 38 40 42 42 42 43 45 49 52 54 59 64 58 54 48 62 61 64 46 46 46

GFSFLT1_sfc_rhum_042.txt.gz
RH
24 26 31 36 52 63 71 76 84 87 91 92 92 92 91 80 66 63 63 61 61 64 62 62 59 54 58 60 63 60 62 60
29 34 36 44 63 74 74 82 81 84 83 80 76 78 71 67 58 61 63 58 52 53 58 54 54 57 59 57 61 63 65 62
35 38 42 53 65 67 78 78 78 75 62 61 66 65 63 57 57 61 59 55 48 51 54 56 57 59 60 65 66 70 65 66
39 41 47 54 68 75 71 74 74 70 56 60 62 59 60 59 57 61 57 52 46 46 48 54 58 61 65 67 66 67 71 66
36 43 49 56 67 70 68 66 63 60 61 55 58 52 53 53 56 56 53 52 49 43 46 52 59 65 66 69 52 71 71 71
36 43 53 53 67 67 70 60 52 52 52 53 59 57 59 56 59 61 55 62 55 49 50 56 60 65 67 70 73 72 72 77
36 53 55 55 63 65 60 53 48 47 50 54 57 59 56 59 59 62 57 52 50 52 55 64 62 63 62 63 65 65 68 73
41 46 50 52 54 57 55 46 43 49 54 55 56 57 54 54 52 51 50 52 55 59 56 56 58 58 59 61 64 67 69 77
41 43 43 46 52 52 50 44 43 47 55 54 55 52 53 54 54 49 54 54 56 53 53 55 55 56 58 61 66 68 66 81
37 39 42 46 49 54 54 45 43 51 56 56 57 52 50 52 50 47 53 51 39 54 55 54 55 58 60 63 67 70 76 79
36 34 40 41 46 52 57 51 48 50 51 57 52 53 52 49 46 48 46 48 48 52 53 53 56 58 60 71 74 71 72 81
35 32 36 39 43 47 52 48 45 48 48 54 56 52 50 46 46 45 45 47 48 48 49 52 54 58 64 68 70 68 70 72
32 32 37 39 44 47 51 51 47 47 49 51 54 51 46 46 45 44 45 48 50 48 50 51 52 56 62 66 70 68 70 70
31 33 36 40 45 49 49 50 47 43 40 44 48 47 40 42 42 42 44 49 50 52 50 55 55 61 60 64 66 64 62 61
29 33 37 42 45 46 46 47 46 41 41 41 44 45 42 43 40 44 49 51 52 54 55 56 58 57 55 54 51 58 60 54
28 34 40 41 44 44 42 44 45 47 42 37 40 41 42 42 46 50 53 55 52 54 56 57 58 56 47 62 58 62 64 61
31 35 36 40 40 40 42 42 46 42 41 40 37 38 39 46 49 54 56 55 53 56 58 60 64 48 77 69 65 65 62 61
31 34 37 39 39 42 43 41 42 39 39 36 36 38 43 48 45 44 48 54 60 64 63 63 68 68 73 66 63 62 66 69
31 35 38 39 39 38 43 35 35 42 39 34 33 40 43 44 44 46 53 58 62 64 65 67 73 64 77 69 65 68 70 67

GFSFLT1_sfc_rhum_045.txt.gz
RH
39 40 44 50 62 81 82 85 94 97 98 98 99 98 96 94 82 74 68 68 68 68 69 63 62 63 63 61 65 67 68 70
36 42 47 64 81 86 87 91 95 96 98 99 98 97 92 80 71 68 70 67 59 68 70 67 63 63 60 66 69 67 70 70
38 44 62 74 83 88 90 87 91 94 93 89 86 84 78 72 70 70 68 66 57 54 60 62 60 62 67 69 69 74 76 73
43 49 74 84 85 91 90 86 86 87 85 79 84 78 78 78 75 76 68 56 51 56 58 61 62 68 69 72 74 75 78 77
43 53 81 82 89 90 86 82 85 84 70 78 81 76 74 74 73 74 62 58 55 50 54 57 65 71 68 76 69 79 83 82
48 55 77 79 86 89 84 81 83 78 70 70 70 74 71 73 73 67 65 58 56 52 63 70 68 72 70 65 65 70 77 80
49 54 64 78 84 85 84 81 75 71 69 67 67 69 68 66 64 64 65 65 63 64 59 61 63 63 64 69 69 70 74 78
66 68 68 73 79 85 88 86 65 61 64 66 69 64 64 66 64 61 58 63 67 56 56 61 63 62 61 64 68 72 74 85
72 70 70 73 76 81 72 57 50 56 64 68 67 57 62 60 60 57 60 59 58 56 57 58 56 58 62 65 71 78 82 89
64 65 65 67 72 68 58 52 57 64 68 67 63 61 61 59 56 54 56 55 48 54 53 54 56 60 64 77 83 83 82 87
59 60 65 65 65 66 64 61 64 70 65 62 59 61 58 54 55 52 52 53 50 52 52 55 58 64 69 73 79 76 80 85
54 56 56 58 63 64 64 66 62 56 58 62 64 60 56 54 51 53 50 52 51 50 52 54 58 66 66 73 74 74 75 78
50 48 51 57 59 62 68 63 52 54 57 59 55 55 56 49 49 53 52 51 52 52 53 55 59 63 66 65 72 76 76 75
47 46 49 52 55 56 58 56 54 50 49 52 62 61 54 50 50 50 54 55 54 53 53 60 61 66 61 65 71 72 66 66
44 42 44 46 51 55 57 54 51 52 49 52 54 56 51 46 49 52 58 56 54 53 58 62 66 60 58 62 60 64 64 63
44 48 62 69 68 70 55 56 50 50 49 49 54 55 51 50 54 55 58 57 51 55 60 65 65 61 54 65 60 65 65 66
45 59 60 62 63 58 53 49 52 51 52 51 48 51 50 56 55 56 56 57 57 59 61 64 66 55 76 70 67 66 64 66
41 49 56 61 55 53 50 50 53 53 46 44 48 51 50 52 48 48 49 54 59 64 64 65 72 73 78 74 69 64 68 74
42 47 51 56 59 51 51 45 43 45 44 46 50 50 47 47 49 50 56 61 65 64 68 68 76 70 81 78 72 67 70 76

GFSFLT1_sfc_rhum_048.txt.gz
RH
60 51 54 55 57 82 87 86 92 96 98 98 98 98 97 92 83 76 73 76 68 71 70 71 69 66 66 68 68 70 69 74
47 50 52 55 81 89 89 92 96 95 97 99 99 98 97 88 80 72 73 73 70 72 74 69 68 63 70 68 71 69 73 79
49 54 56 81 88 89 91 90 94 93 92 97 93 93 90 80 77 77 75 66 65 65 68 64 64 69 69 70 73 79 81 79
52 59 76 86 92 94 90 91 90 91 89 88 87 83 83 81 81 79 78 65 60 62 65 65 66 72 73 77 77 78 84 84
54 63 85 91 92 92 88 86 89 91 90 87 79 82 77 81 80 81 73 64 62 59 61 67 75 77 77 76 68 76 80 74
59 73 80 83 94 95 92 87 88 83 88 82 80 84 80 82 83 80 73 67 64 64 70 74 73 73 67 65 69 73 79 83
54 78 81 88 94 96 94 89 88 92 90 81 82 78 79 81 85 77 76 79 73 62 59 65 66 64 63 67 70 69 75 82
70 89 89 95 96 95 94 91 89 87 87 79 80 76 77 74 76 76 75 66 61 57 59 62 61 61 65 68 73 78 84 89
63 82 88 90 92 92 91 89 85 80 79 77 76 72 75 78 70 62 62 63 66 61 67 60 58 62 71 80 85 88 84 91
71 72 82 88 89 90 91 89 77 71 71 69 64 66 67 69 59 59 61 63 60 67 58 56 61 72 74 77 82 80 83 88
85 82 84 86 88 90 78 71 68 68 67 61 59 65 64 57 58 61 60 60 57 58 60 55 63 72 68 74 77 80 79 85
75 76 76 76 74 71 70 65 64 63 60 67 67 66 66 66 62 62 59 63 63 55 55 55 59 70 68 71 72 74 80 80
65 68 70 70 67 65 68 72 69 65 62 68 57 58 64 64 62 63 63 59 58 55 56 55 59 69 70 68 68 72 78 80
59 63 65 65 62 63 71 67 63 58 56 56 62 69 62 66 59 59 62 60 58 57 56 58 62 71 69 67 71 74 76 68
56 55 58 60 61 66 63 62 70 56 60 65 69 69 63 54 60 62 64 60 59 58 59 62 68 72 65 63 63 74 67 64
58 60 64 69 74 77 73 71 70 71 69 65 69 68 59 60 61 62 64 62 58 58 60 66 68 67 59 68 62 67 67 66
53 65 73 71 76 74 71 73 74 68 62 66 67 57 58 65 66 67 64 60 58 59 63 65 69 60 69 78 71 70 64 66
66 71 72 75 77 74 77 70 72 62 57 59 61 60 60 62 57 55 53 54 61 65 70 69 70 75 79 78 74 68 69 71
57 63 71 70 65 63 62 56 55 59 55 55 54 58 59 58 56 58 68 66 67 71 73 72 74 74 82 81 79 71 73 74

GFSFLT1_sfc_rhum_051.txt.gz
RH
73 73 71 73 70 87 92 91 96 97 98 98 98 98 97 93 86 83 78 75 69 72 75 74 71 70 71 72 69 75 75 76
71 71 67 71 84 96 94 96 97 96 97 97 98 98 97 90 83 78 79 72 70 71 73 72 67 65 71 69 74 70 78 83
71 67 68 68 87 94 95 93 96 93 90 98 96 97 96 86 82 79 77 74 72 70 70 68 66 75 74 74 74 83 84 85
67 61 67 72 88 94 93 92 93 92 90 92 93 88 86 83 83 84 82 70 71 68 67 70 72 75 76 80 81 77 78 80
58 60 65 77 79 88 88 91 92 92 87 87 87 86 89 82 82 84 83 72 68 65 67 72 78 81 81 78 71 79 74 72
56 59 60 72 82 95 94 94 93 89 87 85 89 89 84 85 84 82 84 76 72 68 71 78 78 74 71 68 69 70 78 82
52 54 64 77 94 96 96 94 91 91 89 93 89 86 85 85 88 89 85 82 78 74 68 66 64 64 66 70 70 71 78 86
56 68 83 90 94 95 94 93 92 92 94 95 92 86 82 82 81 82 84 77 72 66 66 72 65 63 66 70 76 86 87 90
71 80 85 92 92 92 92 94 91 95 96 94 90 88 81 84 85 80 74 67 67 73 74 73 64 65 70 77 86 87 84 89
76 86 88 94 95 92 93 95 93 94 93 92 92 85 84 84 78 70 72 68 66 78 72 70 68 72 74 80 84 81 84 90
77 87 91 93 93 92 94 94 93 90 90 85 78 76 72 63 67 70 68 79 86 78 76 73 67 74 74 79 81 82 80 85
91 88 91 92 93 95 96 95 92 84 78 73 75 69 65 67 67 66 69 79 79 83 69 65 66 72 74 77 74 75 76 79
86 85 88 93 94 94 93 89 81 75 78 75 70 65 68 68 64 64 78 93 78 64 67 60 63 72 74 73 70 72 78 81
83 87 85 84 84 83 82 78 81 80 73 73 70 71 70 71 73 83 89 75 70 66 61 60 65 71 72 74 74 74 79 80
73 81 82 82 82 82 85 88 88 77 72 70 74 75 79 78 84 74 75 72 62 61 62 63 68 69 73 71 68 76 81 76
68 70 79 81 85 92 89 88 82 78 72 76 82 79 71 70 70 70 69 65 60 59 61 65 70 73 69 74 72 74 76 73
63 68 74 79 88 92 86 84 86 83 81 82 71 65 63 67 70 71 69 64 60 61 65 70 73 63 72 80 78 78 73 73
72 78 79 88 86 82 87 86 83 79 72 65 67 67 68 67 62 61 58 63 76 74 70 71 72 76 80 80 83 79 77 76
73 82 82 85 79 77 70 65 63 64 62 63 64 65 65 62 60 67 86 89 77 72 73 76 80 74 82 85 84 83 78 77

GFSFLT1_sfc_rhum_054.txt.gz
RH
74 80 82 92 84 87 94 96 96 97 99 99 99 99 98 97 94 88 80 76 73 76 76 74 74 72 74 73 72 78 77 77
74 77 83 89 85 94 96 96 98 98 99 99 100 99 98 96 96 88 80 73 71 73 74 74 72 70 73 71 76 73 81 84
82 84 86 84 86 94 96 94 97 96 96 98 96 98 97 94 94 86 80 75 71 70 73 71 70 78 77 76 75 84 85 85
87 83 82 81 86 94 94 94 95 95 94 96 97 96 95 94 89 88 84 77 72 68 71 74 76 78 79 81 81 75 75 79
79 80 78 75 76 91 91 94 95 95 92 88 90 91 96 90 86 86 85 77 76 72 71 74 79 83 84 78 72 79 72 69
76 75 71 70 79 94 93 95 96 95 93 87 92 95 96 95 93 84 88 80 76 71 74 82 83 81 75 71 71 73 78 76
65 67 68 71 92 97 97 96 95 95 93 92 92 93 96 96 92 86 89 84 82 79 78 77 72 69 69 68 69 68 75 83
64 69 71 83 94 97 96 95 95 96 95 93 93 95 91 90 85 83 86 84 82 78 70 70 67 70 76 74 73 77 80 86
56 61 70 83 92 95 94 95 89 95 96 95 96 92 86 87 86 84 83 77 75 72 81 79 75 70 71 75 78 79 78 89
55 59 72 88 92 94 94 92 88 92 95 96 97 96 91 88 90 86 80 75 70 83 75 77 84 89 78 78 77 75 80 86
70 74 84 89 92 92 93 91 90 92 95 95 96 95 90 89 85 80 74 79 83 81 88 91 92 79 75 77 76 76 84 87
79 90 92 93 94 95 94 94 95 96 97 96 96 92 84 81 78 77 83 84 83 85 90 91 75 76 78 77 76 78 84 84
89 92 96 98 96 97 96 95 96 96 95 93 90 84 84 87 84 81 83 86 86 93 81 70 69 73 74 78 78 72 81 81
90 94 95 95 96 96 97 97 98 95 92 90 89 89 84 83 83 82 84 91 87 76 73 71 69 73 76 76 76 77 80 81
86 91 93 93 94 95 96 95 95 94 90 89 89 85 84 79 77 87 88 79 77 71 69 67 72 69 70 74 74 78 81 82
76 80 88 90 93 96 96 96 93 90 88 88 90 86 77 80 85 78 82 83 74 64 67 70 70 72 70 79 79 81 83 84
69 75 78 90 95 97 96 94 90 87 89 90 80 80 79 73 74 80 81 69 64 63 74 74 76 66 74 80 83 85 82 80
93 95 94 94 96 94 95 94 90 88 80 73 73 73 73 72 66 63 63 72 89 88 90 78 78 80 81 82 83 88 83 81
74 86 87 89 85 81 76 74 76 74 70 68 64 62 62 65 71 81 90 92 94 92 81 78 81 77 82 84 86 91 85 80

GFSFLT1_sfc_rhum_057.txt.gz
RH
67 70 66 64 63 68 72 78 80 81 84 85 85 86 86 84 78 80 76 70 67 61 52 67 51 50 50 48 51 51 48 46
64 66 66 67 70 74 76 81 82 81 81 89 90 92 88 84 80 76 73 62 60 59 55 62 52 48 51 55 54 57 52 53
67 66 68 68 70 75 78 77 79 74 68 71 71 76 84 78 80 75 68 63 57 56 62 52 51 51 58 58 57 55 53 53
67 70 71 71 73 79 75 74 75 73 70 71 75 79 78 79 79 77 66 61 55 58 59 53 56 54 54 59 58 56 50 51
62 69 70 71 70 74 72 73 74 77 79 73 77 71 76 78 81 74 67 68 66 56 54 56 60 56 60 60 53 52 48 42
62 64 64 65 68 79 78 76 74 76 77 74 81 80 79 82 82 75 74 66 60 53 56 60 62 58 62 58 60 55 49 47
57 59 62 62 70 78 80 79 76 77 79 79 81 82 84 86 84 84 74 65 63 62 56 60 62 60 58 61 67 68 69 53
54 60 63 63 70 74 77 75 75 79 82 83 85 86 82 78 77 82 73 72 66 63 62 65 57 56 59 70 74 80 77 73
50 52 56 59 67 70 74 72 73 78 83 84 90 87 80 76 79 83 80 74 62 64 64 60 57 61 73 88 89 83 78 67
48 48 54 58 64 70 76 71 72 76 83 85 92 92 87 85 87 86 72 67 62 71 67 59 64 75 89 88 78 76 75 68
46 47 54 57 64 68 76 72 72 73 79 85 90 90 84 83 83 75 72 67 66 71 66 66 84 92 76 68 72 74 75 62
48 47 52 59 67 71 75 73 70 74 78 84 87 89 86 85 79 76 72 80 79 68 76 87 86 79 75 77 77 74 65 60
50 53 63 68 71 72 74 75 74 77 83 87 91 91 89 87 88 84 87 84 79 76 82 88 81 85 79 79 72 58 60 61
58 63 65 68 73 76 79 81 82 83 89 90 91 90 88 87 87 90 90 89 84 86 86 85 74 74 74 65 58 61 60 59
56 64 70 75 80 84 86 88 90 90 84 85 89 88 87 88 91 89 89 82 83 82 82 82 84 79 66 55 56 60 60 59
59 63 69 71 77 82 83 86 86 85 86 84 86 86 82 84 85 80 84 82 82 86 86 80 72 65 64 64 56 58 60 60
71 65 68 76 81 81 83 80 78 76 77 83 79 79 78 80 80 85 87 85 81 72 71 78 80 71 77 80 73 59 57 59
78 79 81 80 80 80 81 78 75 74 72 71 73 76 76 77 76 69 74 83 84 85 92 92 90 80 80 82 84 58 58 57
73 72 74 74 71 71 70 64 64 65 66 64 63 65 68 66 81 88 90 92 95 93 93 80 68 58 82 85 86 59 60 59

GFSFLT1_sfc_rhum_063.txt.gz
RH
37 38 34 34 37 41 42 44 46 47 50 47 40 42 40 38 40 40 55 65 66 63 54 57 54 44 45 43 44 38 34 33
35 38 38 36 40 43 42 44 46 47 45 44 39 42 40 40 40 44 53 65 70 68 56 56 55 47 47 49 47 46 39 40
35 38 40 38 40 42 41 39 41 43 41 40 35 34 34 36 39 45 57 68 66 66 62 56 58 47 52 55 53 46 42 43
36 37 42 42 40 42 40 38 39 42 40 37 34 34 35 39 39 44 63 67 63 65 63 60 60 52 55 61 54 49 45 45
32 38 42 45 42 40 38 38 37 39 43 39 42 36 36 37 42 41 60 64 65 59 59 59 58 54 60 61 51 50 49 48
26 32 36 38 42 43 43 39 38 38 42 45 43 44 38 37 41 47 70 70 63 64 64 70 65 56 62 68 63 53 47 45
22 24 30 33 37 43 45 43 39 40 42 48 50 51 49 39 40 57 67 68 65 64 59 69 68 68 74 71 62 56 51 53
24 22 26 31 36 41 44 44 42 42 46 48 53 53 54 54 50 62 68 69 74 71 68 72 71 80 77 70 58 58 72 63
24 25 24 28 34 38 43 43 46 43 52 52 54 57 54 56 75 88 79 80 74 69 67 70 83 84 79 68 59 78 69 80
20 23 26 26 30 38 45 43 42 44 49 53 58 61 62 61 68 69 83 78 77 79 81 82 90 90 74 72 86 84 89 91
20 22 26 28 29 36 42 45 43 44 46 57 64 70 74 73 76 75 79 74 76 82 86 90 87 76 83 83 88 90 89 84
23 23 23 24 28 33 39 42 45 46 45 57 70 77 81 84 82 83 80 76 76 84 83 82 84 92 90 85 84 88 89 89
21 25 26 27 29 31 36 41 44 43 44 48 75 75 82 90 91 91 87 89 86 80 80 92 91 90 93 90 90 87 88 85
19 24 28 30 33 35 37 42 42 40 42 50 75 86 88 95 93 89 87 88 92 93 93 95 93 91 89 90 90 88 88 79
19 23 28 32 37 40 43 53 62 65 72 85 94 94 93 93 92 91 93 92 92 92 91 88 88 88 87 85 85 85 74 67
18 25 30 37 46 61 72 82 83 82 85 89 93 91 90 91 93 92 92 91 89 86 88 88 89 87 87 90 82 80 74 66
30 29 35 44 53 64 76 84 85 82 86 89 88 87 86 87 88 88 88 86 83 81 84 90 95 87 92 94 88 77 72 64
39 40 48 52 56 62 72 74 72 73 75 73 72 72 73 74 72 73 74 75 81 87 91 90 86 79 89 90 91 69 56 50
48 49 52 52 52 54 57 54 56 58 57 57 58 59 58 57 58 62 70 78 80 80 79 79 76 66 86 92 86 54 50 47

GFSFLT1_sfc_rhum_069.txt.gz
RH
83 83 79 78 81 81 76 75 78 79 70 71 81 78 78 75 83 79 80 82 79 80 86 82 76 75 75 75 67 75 66 57
77 76 74 76 81 77 68 73 72 79 78 72 76 73 79 80 78 75 84 81 85 86 90 85 81 75 77 72 72 74 70 68
72 71 71 73 67 63 62 62 62 72 65 68 74 68 77 73 71 73 77 85 87 88 90 89 85 80 83 76 76 79 67 72
68 62 67 66 58 59 55 59 62 65 58 66 70 77 76 69 73 64 88 83 84 89 92 94 86 87 82 86 80 80 69 75
62 58 63 63 61 60 56 55 58 62 61 58 61 57 65 63 66 72 85 83 88 87 87 90 89 84 88 90 84 85 80 82
51 54 56 56 55 60 57 56 55 56 57 57 59 59 59 67 70 64 88 87 85 86 88 92 94 88 88 88 90 87 97 98
48 47 49 53 52 54 53 55 53 52 54 58 58 56 63 62 68 70 81 91 89 87 84 88 92 90 89 95 97 96 99 98
45 52 49 49 54 54 52 52 53 51 52 55 63 60 72 60 68 68 91 91 86 86 88 95 93 94 95 95 96 98 97 97
42 44 50 48 48 52 52 51 54 51 54 53 58 63 64 79 66 75 83 85 86 93 94 94 94 94 95 96 98 98 95 97
36 42 43 48 48 50 55 51 51 52 54 68 60 60 74 65 65 86 84 88 94 96 95 95 95 96 96 97 98 98 97 98
34 34 45 44 47 51 54 54 52 50 53 57 69 68 74 80 77 95 94 97 98 98 98 96 96 97 97 96 97 96 96 96
34 38 41 42 45 48 54 54 53 53 52 63 62 85 90 93 97 97 98 98 96 96 95 96 97 96 95 95 96 96 93 93
33 38 44 55 44 46 53 56 53 53 57 68 77 96 96 98 98 97 97 95 95 96 96 96 95 95 95 95 95 93 92 92
36 38 40 44 53 54 54 67 76 86 93 98 97 98 99 97 99 99 98 98 98 97 95 96 96 97 96 94 91 90 91 87
39 42 43 60 84 90 92 96 94 83 92 97 98 98 98 98 98 98 97 95 96 95 94 96 96 94 91 89 89 90 90 88
31 42 61 89 96 96 97 96 96 94 97 97 98 98 97 97 97 96 96 96 96 95 95 95 94 91 88 89 88 91 92 91
35 57 79 85 92 97 93 91 95 93 97 97 96 95 95 97 97 96 96 95 94 94 94 94 94 88 96 94 93 92 84 82
53 71 82 89 94 93 98 96 93 93 94 93 93 93 94 94 91 91 93 94 94 95 96 94 95 93 95 96 96 94 94 94
78 84 89 92 93 92 90 88 88 90 89 88 87 87 87 85 86 88 93 95 96 97 92 90 88 82 94 95 97 95 92 82

GFSFLT1_sfc_rhum_072.txt.gz
RH
80 81 80 83 86 84 90 82 82 78 78 77 80 75 77 79 84 84 82 84 86 83 85 87 84 81 78 73 67 74 68 66
86 90 90 88 82 82 82 80 80 83 70 73 72 72 88 87 89 80 88 88 87 89 90 88 85 75 75 75 74 73 79 70
89 90 90 92 91 87 83 82 83 84 74 66 69 77 85 73 82 84 81 88 90 89 92 86 86 80 81 82 78 86 79 78
88 86 88 90 89 87 74 75 74 73 77 73 82 84 81 80 83 82 86 85 84 86 89 89 85 88 84 87 82 79 83 84
81 80 85 86 80 75 65 63 61 68 76 62 71 61 68 63 75 76 84 87 85 84 87 92 93 91 91 90 86 87 86 87
79 73 74 74 65 64 60 60 59 61 68 61 70 71 73 79 80 78 81 91 87 85 91 94 95 91 89 94 95 93 92 94
70 64 63 58 54 56 59 60 59 61 68 65 66 65 76 78 75 76 88 92 90 89 89 91 93 95 94 96 95 94 96 97
69 64 63 59 58 56 60 63 62 62 66 66 66 64 81 67 69 69 75 86 92 91 93 95 97 96 97 96 95 97 98 97
64 62 59 60 60 60 61 60 61 60 63 62 64 68 62 73 62 66 72 75 82 86 91 95 96 96 96 97 98 98 98 98
54 54 55 55 57 60 63 61 58 58 59 59 59 67 70 68 71 72 79 89 86 94 95 96 97 96 95 96 98 98 98 98
50 51 52 52 54 56 58 58 56 55 55 57 57 58 77 75 84 92 92 96 97 97 98 97 97 97 97 97 98 98 97 98
44 48 50 51 48 51 55 55 54 58 56 58 59 63 64 82 91 97 98 98 98 98 98 97 97 98 98 97 97 98 97 97
41 42 47 50 51 51 50 54 54 64 85 89 91 90 91 92 93 98 97 98 98 98 97 98 98 97 97 97 98 95 94 94
44 50 49 42 52 51 53 57 72 85 94 96 97 97 96 98 98 97 95 92 96 98 98 98 98 97 98 96 94 93 90 88
41 48 68 88 88 73 64 71 78 79 78 98 99 99 98 98 98 99 99 98 98 98 98 98 98 97 95 93 91 91 90 88
43 51 95 98 95 96 98 98 98 95 98 98 99 99 99 98 98 98 99 98 98 98 98 98 96 94 92 93 91 90 89 92
40 61 90 96 93 96 98 98 98 96 98 98 98 98 98 98 98 98 98 98 98 97 98 97 97 92 97 94 90 91 90 86
68 70 83 96 93 95 97 97 95 96 97 96 96 96 97 97 94 95 96 97 97 98 97 95 95 94 95 95 94 90 90 92
74 85 96 97 94 94 94 92 92 94 94 93 93 93 94 92 91 93 96 96 97 97 96 93 91 87 96 96 99 95 91 87

GFSFLT1_sfc_rhum_075.txt.gz
RH
91 90 85 84 88 90 92 95 94 92 89 90 87 81 83 85 80 83 88 81 86 88 87 86 85 83 82 77 70 72 68 65
91 85 84 85 88 89 92 93 91 87 88 87 85 82 85 87 83 86 90 85 85 88 91 90 88 79 77 75 74 71 78 74
97 98 87 88 91 85 88 86 83 77 71 74 72 75 82 83 92 89 86 92 90 89 90 88 87 81 83 82 78 84 80 78
97 97 97 84 93 88 88 87 86 81 64 68 76 74 79 86 92 94 91 90 92 90 92 92 92 89 85 86 81 80 84 83
92 95 98 97 94 94 86 85 84 84 81 70 74 78 78 81 84 86 91 92 91 93 93 94 93 91 92 85 85 87 88 93
91 90 90 92 91 93 85 81 76 74 74 76 78 77 77 80 84 84 86 93 92 90 92 94 94 93 86 90 93 93 92 94
82 79 81 88 92 88 80 76 71 68 72 83 76 84 88 89 87 84 88 87 93 93 91 94 92 92 94 93 94 95 95 95
85 81 81 83 84 80 74 70 67 65 70 74 78 78 86 81 79 77 82 86 92 89 94 95 93 92 95 95 97 96 97 96
78 78 73 72 68 68 66 64 63 60 66 70 73 70 73 77 71 71 80 81 81 88 95 92 93 95 96 97 98 97 97 97
73 72 69 65 59 60 62 60 58 58 63 67 70 74 71 69 76 80 81 88 81 94 94 94 96 98 98 98 98 98 98 98
68 68 67 63 57 56 57 60 60 60 61 65 68 71 78 76 85 88 85 89 95 98 98 98 99 99 98 98 99 98 98 99
60 63 62 60 61 62 62 59 63 66 63 66 73 77 78 86 88 93 95 98 98 98 97 97 99 99 98 98 98 98 98 99
54 55 56 60 58 59 61 61 62 73 77 80 77 74 72 79 90 95 96 95 96 96 97 95 98 98 98 98 98 98 98 99
48 52 54 56 59 57 58 62 67 72 77 73 74 79 79 82 93 95 96 95 95 95 95 98 98 98 98 98 97 98 97 95
44 45 48 52 54 58 59 63 70 75 76 78 80 80 91 92 92 94 94 95 95 97 97 98 98 98 98 98 97 97 94 92
50 50 66 79 75 77 70 76 77 80 81 82 91 99 99 99 98 96 98 98 98 98 98 99 99 98 98 98 95 95 93 93
48 60 91 94 93 96 99 99 98 93 97 98 99 99 99 99 99 99 99 99 99 98 99 98 99 98 99 98 94 94 92 93
50 59 84 93 96 94 95 98 98 97 98 98 98 98 98 98 98 98 99 99 98 99 99 98 98 98 98 96 95 90 91 92
39 57 93 96 97 90 94 95 97 98 97 98 98 98 97 96 96 97 98 98 98 98 98 97 96 94 98 97 95 88 83 78

GFSFLT1_sfc_rhum_078.txt.gz
RH
84 84 86 86 88 90 93 95 94 96 97 97 98 97 96 89 87 82 78 86 84 80 80 82 86 85 80 75 70 73 66 64
82 85 90 88 89 92 95 95 95 95 97 98 97 94 93 93 86 82 88 82 84 82 88 88 88 83 80 79 75 71 77 72
91 89 90 88 91 90 92 92 92 90 83 92 96 88 92 85 89 85 79 87 88 88 90 88 88 88 86 83 77 83 80 77
93 91 84 89 91 90 89 86 87 83 79 91 89 90 94 90 96 94 95 93 90 88 92 91 89 91 84 86 83 79 82 87
87 88 84 81 88 78 83 82 84 78 75 81 83 78 81 83 90 90 96 94 94 86 88 90 90 92 92 86 84 87 87 91
96 92 89 83 80 93 94 89 88 84 77 68 76 84 78 82 85 88 92 94 92 93 93 95 95 92 91 92 93 90 92 94
92 91 93 93 93 97 96 93 89 85 82 82 76 82 80 84 87 84 86 89 94 94 93 95 94 94 95 92 93 93 93 94
93 94 96 97 98 98 95 88 89 82 84 81 81 76 86 78 81 78 91 90 95 94 96 97 96 94 94 94 95 95 95 93
88 86 86 92 92 94 90 85 82 78 81 79 78 82 76 80 83 86 91 90 90 92 94 95 94 94 95 96 94 95 98 97
86 82 79 82 86 86 85 81 76 73 74 76 73 86 86 84 86 88 92 92 90 91 94 95 96 96 97 98 97 98 98 98
82 82 78 73 73 75 78 74 72 68 67 70 71 82 88 86 87 90 89 89 90 93 95 96 97 99 99 99 98 98 99 99
80 78 75 71 67 68 74 72 70 69 64 66 78 87 88 89 86 83 82 84 87 88 88 93 96 98 98 98 98 99 98 98
74 76 75 74 68 63 65 68 67 74 75 73 77 77 78 79 78 74 76 84 88 89 94 94 94 97 98 98 98 98 98 98
69 72 73 73 70 67 62 64 69 70 75 76 76 76 73 74 77 78 87 87 91 93 92 95 96 98 98 98 98 98 98 97
61 69 69 67 68 68 69 71 70 71 74 76 77 82 80 81 91 94 92 91 93 94 95 98 99 99 99 99 99 99 99 98
51 58 63 67 73 74 70 75 76 75 80 81 79 80 82 88 95 96 96 96 95 96 99 99 99 99 99 99 99 98 98 98
44 54 58 65 71 79 84 86 83 80 84 84 82 89 97 98 100 100 100 99 99 99 99 99 99 99 100 100 98 98 97 96
35 43 51 63 87 92 96 99 97 90 88 94 98 98 99 99 99 99 99 99 99 99 99 99 99 99 100 99 98 95 96 95
35 39 61 95 97 98 98 97 98 98 98 98 98 99 99 99 99 99 99 99 99 99 99 99 98 97 99 98 95 88 88 85

GFSFLT1_sfc_rhum_081.txt.gz
RH
69 75 75 79 84 89 93 92 90 89 95 97 98 97 98 94 72 64 67 62 59 56 54 73 72 68 56 52 51 53 46 41
70 78 79 81 87 89 94 96 93 94 97 98 98 98 97 96 86 76 72 64 62 62 58 62 70 60 62 67 58 59 53 51
79 82 86 85 87 88 92 91 90 89 92 96 92 96 97 92 94 86 72 69 66 60 66 60 64 59 68 66 61 56 54 53
87 86 92 86 88 87 92 88 86 87 92 96 95 97 97 95 92 84 72 71 63 62 66 62 66 65 64 68 65 64 56 58
73 82 88 87 80 86 84 86 87 85 92 92 92 81 88 81 81 69 60 71 67 62 64 67 70 68 69 70 66 65 65 67
71 79 74 76 75 83 86 83 82 80 81 84 86 85 77 68 70 70 75 75 70 64 67 72 74 71 73 76 77 74 74 71
67 70 74 75 72 77 81 82 78 75 73 75 81 78 74 76 74 69 73 72 75 76 71 73 75 76 79 80 78 77 77 75
70 77 85 82 79 80 84 82 81 78 76 75 74 72 73 71 70 68 71 74 76 77 79 81 81 80 80 78 80 81 80 80
66 69 74 80 84 83 83 82 79 78 78 75 72 70 68 66 68 66 70 68 68 71 76 76 78 76 79 80 82 82 82 86
63 65 69 72 78 86 85 77 73 74 76 76 74 72 69 68 70 70 72 72 67 74 74 75 75 77 79 80 86 85 86 89
63 63 68 67 67 73 79 75 71 70 71 72 71 71 71 68 72 74 75 74 73 73 78 74 75 76 78 82 86 84 90 94
63 62 62 64 64 66 72 71 68 70 68 69 71 70 70 73 75 73 73 72 70 72 72 72 74 77 83 91 93 97 97 97
59 63 63 64 64 63 63 64 64 71 71 72 74 74 72 73 74 71 71 69 69 71 71 73 71 80 89 97 97 98 98 98
59 63 65 63 62 61 59 62 68 68 70 75 76 76 75 75 72 71 68 70 70 74 74 75 75 79 84 96 96 97 98 98
52 59 62 62 61 59 58 62 65 65 62 66 73 74 69 70 69 73 70 68 71 73 80 82 82 82 90 94 96 97 96 97
45 49 56 60 63 62 59 60 63 63 64 65 67 69 68 64 66 75 76 79 75 75 78 83 87 96 98 98 98 98 98 98
33 41 48 58 61 63 65 64 65 63 64 67 65 64 65 69 72 82 89 87 84 83 89 95 99 99 100 100 99 98 97 98
30 34 41 47 52 64 66 65 66 68 66 65 67 68 67 71 80 96 97 97 99 99 99 99 99 99 100 100 100 96 96 94
31 31 37 48 58 58 68 67 68 70 69 70 74 80 87 98 98 98 99 99 99 99 99 99 98 97 100 98 96 91 90 88

GFSFLT1_sfc_rhum_084.txt.gz
RH
45 57 56 55 65 81 86 87 87 84 97 94 95 93 95 93 69 55 53 49 56 49 44 51 40 38 40 37 41 37 35 32
44 60 67 65 68 87 91 92 85 84 97 97 96 94 93 94 76 70 67 45 46 45 43 47 41 42 45 49 43 46 39 38
49 62 66 69 68 81 92 90 91 90 85 92 91 94 90 88 80 72 66 66 52 44 48 50 50 53 58 55 53 47 42 42
51 60 66 68 67 76 89 86 86 86 88 95 96 91 95 94 84 76 67 62 50 47 52 52 60 50 53 57 55 52 48 46
47 55 65 67 66 69 80 84 81 80 84 91 94 86 86 81 74 74 71 62 56 44 47 51 55 50 52 56 50 53 53 52
43 51 57 58 63 66 75 82 81 80 84 88 92 91 77 74 72 72 70 70 60 50 50 54 55 50 55 56 58 61 53 56
37 46 55 55 62 67 73 81 82 83 81 85 86 84 83 83 76 72 55 50 50 55 48 54 56 54 57 59 62 63 63 59
38 46 53 56 65 68 72 74 79 82 83 80 76 76 79 82 66 64 58 46 43 53 57 56 55 58 59 62 66 67 66 65
37 42 48 55 61 62 70 72 74 76 78 74 72 67 72 70 69 66 52 50 50 55 60 62 63 62 63 65 65 65 67 69
33 39 48 54 58 60 72 71 69 66 71 69 67 68 63 62 60 62 54 55 49 58 61 64 63 64 63 64 65 67 68 71
31 36 46 50 54 59 68 65 62 56 63 65 62 62 61 58 58 61 58 57 57 56 60 61 60 60 59 62 63 64 68 69
32 34 39 44 50 55 61 58 52 53 55 59 62 62 60 60 62 61 61 62 59 58 58 57 57 56 55 60 64 66 68 70
32 36 38 42 47 50 54 52 49 54 56 58 62 62 61 63 64 64 65 63 60 56 55 54 53 52 54 57 61 67 75 81
32 37 39 41 44 46 48 51 53 53 55 61 63 65 64 68 68 65 61 60 56 54 52 55 54 55 53 57 60 69 75 89
32 36 39 39 41 44 45 49 51 52 52 56 63 64 64 64 62 63 60 56 54 52 53 55 56 52 51 56 64 78 85 87
28 36 38 39 41 43 44 46 49 51 53 54 58 61 59 58 59 61 60 58 54 53 55 56 59 63 63 66 71 84 85 92
21 26 33 40 42 42 45 46 50 51 52 53 50 52 53 54 54 55 58 61 58 60 64 64 67 66 95 100 96 96 99 99
25 23 26 34 40 45 45 45 46 50 52 50 50 50 50 51 50 50 54 67 71 74 72 72 83 96 100 100 100 98 98 97
26 24 25 26 32 40 42 42 45 49 49 48 49 51 52 49 49 51 65 77 89 96 98 98 98 97 100 98 96 91 92 92

GFSFLT1_sfc_rhum_087.txt.gz
RH
29 34 38 39 44 62 78 85 86 87 95 95 94 94 94 92 89 82 77 73 71 62 59 68 61 58 58 51 54 46 44 38
28 38 43 44 50 70 80 86 91 92 97 97 94 94 90 87 81 82 79 64 56 58 56 56 51 47 48 54 50 53 47 39
32 40 49 53 55 64 79 81 83 88 91 91 90 90 85 82 77 62 50 56 52 49 52 50 49 46 56 57 56 49 41 45
33 42 53 62 59 64 71 79 74 81 91 93 90 87 91 89 86 68 56 52 47 47 56 52 59 62 65 64 57 57 50 47
31 40 49 58 57 59 65 71 77 76 88 92 89 85 84 75 71 56 65 63 58 53 63 64 66 61 60 62 52 55 54 52
29 39 43 47 52 60 68 74 76 75 81 90 92 84 74 71 68 64 62 69 65 56 57 62 58 53 62 63 58 58 51 51
24 33 39 44 50 57 70 76 79 78 82 89 90 89 79 81 74 73 70 71 75 66 52 55 54 58 59 58 60 60 64 61
24 33 39 44 52 56 73 74 80 79 83 81 86 86 80 78 73 74 71 72 72 70 62 59 57 59 57 60 66 68 67 65
23 30 38 42 50 56 66 69 72 76 81 79 76 80 71 70 75 69 66 65 65 62 64 60 56 57 59 61 62 66 70 72
22 26 37 42 48 55 62 67 70 75 77 78 78 76 72 67 74 70 64 58 50 54 54 63 61 60 61 63 64 67 69 72
21 25 35 38 45 51 56 61 62 69 70 75 72 67 71 67 66 69 62 59 52 51 54 59 63 61 62 65 65 64 66 69
19 24 30 37 43 46 52 53 53 58 68 70 72 71 68 67 67 66 63 62 54 54 53 58 61 61 61 64 66 63 64 67
18 24 29 37 42 43 49 50 49 52 58 64 69 72 70 68 66 64 65 62 58 56 56 56 57 56 57 59 62 58 61 64
22 25 28 34 40 43 45 50 48 47 48 57 64 67 65 66 65 64 61 60 58 57 55 57 56 57 55 56 56 58 60 61
22 26 28 31 36 41 43 48 47 45 45 49 58 61 62 62 61 64 65 63 60 58 57 56 58 52 49 50 49 55 59 61
18 25 28 29 33 38 41 44 46 45 45 48 54 58 56 56 60 61 64 67 62 58 58 56 54 53 50 55 52 56 58 68
17 18 24 30 31 36 39 42 46 46 47 50 49 53 52 57 59 60 62 62 58 56 55 55 57 52 74 87 85 72 87 93
19 20 18 22 30 33 36 39 42 46 48 46 47 49 52 54 53 53 56 62 63 63 60 58 60 67 100 100 100 99 99 98
23 20 21 20 21 28 35 34 38 44 45 45 45 47 48 48 49 50 55 59 66 72 80 84 91 94 100 99 97 92 94 94

GFSFLT1_sfc_rhum_090.txt.gz
RH
28 32 38 39 48 76 83 83 85 93 97 97 97 97 98 97 96 93 90 86 84 84 88 88 83 77 76 70 67 68 62 59
28 36 45 46 66 78 84 82 91 96 96 97 96 97 96 97 94 87 87 87 79 82 87 85 74 74 69 68 71 67 61 64
30 42 48 53 67 80 86 85 88 92 90 90 88 88 86 88 92 91 83 85 80 81 84 73 70 68 68 70 68 69 64 64
32 45 53 59 70 81 85 77 79 90 90 91 91 88 88 88 86 87 84 84 83 79 75 64 73 66 66 74 73 66 66 63
30 42 55 60 64 76 78 79 79 88 88 88 86 83 82 78 77 68 62 67 65 61 62 62 61 60 69 70 69 69 69 64
30 39 52 56 61 70 78 80 78 87 85 84 83 79 75 83 78 72 62 62 60 61 64 68 75 69 72 77 78 81 79 87
27 37 46 53 58 66 76 81 79 86 86 82 81 82 80 85 76 71 69 64 68 70 66 75 77 69 76 74 86 79 80 83
25 40 44 49 62 68 73 78 80 83 87 87 78 78 79 79 73 64 64 66 78 81 75 74 71 73 71 76 79 84 83 88
25 37 43 48 60 66 67 73 77 81 85 85 81 74 79 77 66 64 66 65 67 73 76 73 67 67 78 79 84 86 87 88
22 33 43 48 57 63 72 71 77 80 83 82 84 82 77 71 69 66 71 69 66 73 72 74 78 77 76 80 81 84 85 88
22 27 44 45 54 62 72 69 73 76 81 79 79 82 78 71 73 68 70 67 66 65 70 73 71 69 76 77 81 80 84 85
22 26 42 44 51 59 68 69 68 73 75 78 79 78 79 74 73 77 70 68 64 64 63 65 67 69 74 79 78 79 81 82
21 25 40 43 51 56 61 65 65 70 73 77 79 78 77 79 75 74 74 72 64 62 58 56 56 67 72 74 80 76 78 84
22 26 34 42 49 51 56 60 62 63 71 74 76 79 77 79 78 75 73 69 67 63 57 56 59 63 67 73 74 75 76 77
26 28 30 39 45 49 52 58 58 59 67 71 77 77 77 75 75 75 74 71 68 66 60 60 60 63 64 67 66 73 76 74
23 28 32 34 42 48 48 55 57 56 57 66 73 74 73 73 71 72 73 73 69 66 66 64 64 63 64 70 68 70 70 76
18 20 25 31 34 43 48 52 58 56 55 58 60 68 69 71 71 72 72 74 72 70 70 69 69 63 78 79 78 81 82 87
23 24 24 28 35 40 46 49 54 55 55 54 56 60 64 68 67 69 72 75 75 76 76 73 74 75 100 100 99 95 99 99
31 33 36 34 30 36 41 41 48 54 54 53 54 57 62 62 64 66 71 73 78 78 77 78 92 98 100 99 98 96 97 97

GFSFLT1_sfc_rhum_096.txt.gz
RH
50 65 78 86 90 92 93 93 97 98 98 99 99 99 99 99 98 96 93 95 92 92 87 74 58 66 75 66 63 69 70 68
53 70 86 92 94 95 94 96 97 98 98 99 99 99 99 99 99 98 96 92 92 90 88 81 53 66 68 66 63 64 72 70
59 75 93 94 95 94 95 96 95 95 94 96 96 97 97 98 98 98 97 97 96 90 86 82 58 70 67 64 62 75 71 66
62 85 95 97 96 96 95 96 95 93 94 95 97 96 98 98 99 98 98 96 94 90 84 82 70 67 65 62 58 59 63 75
59 79 97 96 96 93 95 95 91 90 93 93 95 95 96 92 93 96 98 95 94 90 87 80 74 67 67 64 62 61 58 63
59 77 89 92 95 96 95 95 85 89 92 91 91 91 86 90 91 96 97 98 94 87 85 82 79 73 74 74 78 77 72 83
54 67 86 94 95 95 96 94 85 91 88 87 89 89 90 91 90 93 95 97 97 92 87 85 79 80 84 77 85 78 84 80
58 78 95 96 96 96 95 93 86 91 90 86 90 87 90 88 88 88 90 94 96 97 96 95 92 84 87 82 84 86 86 88
61 75 90 94 94 94 93 95 85 88 91 84 82 87 83 81 80 81 80 83 88 90 89 88 84 81 82 88 85 83 91 87
64 70 84 89 92 93 91 94 83 84 88 82 78 85 80 77 78 74 74 76 73 74 76 80 84 82 81 80 84 85 92 92
64 68 76 82 86 88 88 88 87 80 85 81 74 81 79 75 72 80 74 73 69 84 79 82 86 82 77 78 81 90 90 92
63 66 69 75 84 87 87 86 91 81 83 80 75 75 78 77 74 72 75 73 73 81 78 82 81 78 79 83 78 81 92 93
56 61 69 79 84 86 86 84 86 88 85 83 79 76 75 78 76 70 74 72 75 73 78 76 81 78 82 86 84 81 87 90
44 58 68 79 81 83 81 81 82 82 84 85 85 83 79 78 77 74 69 78 78 77 74 76 73 75 82 80 77 81 86 86
57 61 64 75 78 80 80 81 82 80 82 82 85 87 83 79 76 74 74 75 77 76 75 73 72 72 70 72 77 82 84 85
54 69 66 73 78 80 79 80 82 83 85 78 76 80 84 84 81 78 78 78 78 75 73 72 73 70 67 71 72 73 77 84
54 56 70 72 73 79 80 82 83 80 79 78 76 76 80 85 85 84 83 86 82 78 78 74 74 67 74 81 79 88 90 90
72 76 72 76 83 84 83 86 86 84 84 84 83 79 78 79 82 85 85 84 85 88 85 81 78 75 82 81 83 76 87 91
85 85 82 84 84 83 79 73 79 83 82 83 83 83 83 78 78 80 85 85 86 86 88 85 84 84 93 87 86 85 99 99

GFSFLT1_sfc_rhum_102.txt.gz
RH
26 25 28 57 74 92 94 95 96 98 99 99 99 99 98 96 96 94 96 96 96 97 98 98 97 96 95 93 88 83 79 82
36 52 42 88 96 97 96 95 97 97 98 98 99 98 96 96 95 96 96 97 96 96 96 98 97 94 89 85 90 86 85 78
39 82 93 96 96 95 93 94 96 94 91 95 94 93 96 98 99 99 96 98 96 95 94 95 96 95 90 84 80 84 82 78
33 80 96 98 96 93 89 95 91 91 90 94 98 98 99 99 99 99 99 95 96 95 94 94 92 90 89 81 78 74 82 80
34 59 97 97 95 86 87 94 92 90 91 94 93 97 97 98 95 98 99 99 98 94 94 95 93 83 80 70 66 68 74 79
37 45 79 92 94 87 90 88 89 88 91 91 90 88 85 96 98 98 98 98 99 94 94 95 90 81 71 65 69 74 70 75
46 39 85 95 91 90 85 89 90 88 89 89 94 96 94 97 98 98 98 98 97 98 95 91 87 84 79 66 76 74 80 73
50 48 93 96 92 91 86 88 92 92 97 95 97 96 93 92 92 94 98 98 99 98 97 95 86 86 86 82 82 85 81 81
54 48 64 94 90 90 89 88 89 92 93 92 97 96 93 93 93 91 94 95 97 98 95 91 88 89 84 87 88 90 89 86
55 48 59 86 89 88 88 82 87 87 88 90 97 96 95 92 94 93 93 93 95 97 96 92 93 92 91 89 85 84 91 90
58 49 81 82 82 83 85 80 84 86 87 86 96 96 96 96 95 95 90 94 94 95 95 96 94 92 88 89 92 90 93 93
59 56 76 83 81 82 86 79 81 85 86 85 95 96 95 95 93 90 89 92 94 94 91 92 93 93 90 88 88 91 92 91
59 66 74 87 87 86 86 79 81 85 85 89 95 95 94 94 94 91 85 91 91 91 90 90 90 88 90 87 87 86 86 89
74 82 84 90 85 85 80 84 85 84 83 88 93 96 94 93 92 91 86 87 89 88 87 90 92 90 92 89 86 86 86 83
78 86 85 87 86 80 84 87 87 84 79 85 89 96 94 93 91 90 88 84 84 90 85 85 90 91 89 87 85 85 85 79
81 89 91 91 88 86 89 92 90 85 84 85 87 92 93 93 92 89 90 88 82 83 88 88 87 88 87 87 83 84 82 78
85 85 90 91 92 93 92 93 94 90 86 91 86 88 91 93 93 92 88 84 83 81 81 86 91 84 91 93 89 88 88 87
88 88 89 89 90 90 94 94 94 95 94 93 90 87 88 92 91 90 86 83 82 85 83 80 83 84 90 92 94 89 92 92
88 88 85 84 82 84 88 90 93 94 93 92 92 90 91 90 90 87 86 85 87 86 88 86 84 85 92 90 90 87 90 90

GFSFLT1_sfc_rhum_105.txt.gz
RH
19 23 22 23 28 51 65 74 79 88 93 94 95 96 96 94 94 93 88 92 88 90 96 98 98 98 96 95 94 93 86 82
24 28 33 41 45 61 72 78 82 89 96 96 97 97 96 96 94 91 92 92 92 94 96 98 97 96 95 92 93 93 92 72
27 30 40 57 53 69 75 76 82 80 82 89 87 88 90 91 93 92 90 92 92 94 96 98 96 97 95 93 92 95 92 80
38 37 36 52 67 73 75 74 81 77 79 84 83 89 90 95 96 95 93 91 95 94 95 95 94 93 95 94 93 89 93 88
40 41 41 42 60 72 74 75 82 78 81 84 83 77 82 84 87 87 96 96 96 93 94 94 93 93 94 94 94 92 90 91
45 44 42 44 58 73 74 82 81 81 82 80 81 84 77 78 79 86 96 97 97 95 93 95 95 92 93 93 95 94 89 86
45 43 43 43 67 73 76 86 84 85 81 84 88 87 78 75 78 85 89 96 98 94 92 91 93 92 92 91 90 89 85 76
48 46 46 47 53 75 77 83 86 86 84 88 87 85 80 79 84 88 95 95 95 98 96 96 94 89 83 78 85 80 77 75
48 47 48 47 52 69 77 79 83 83 87 88 86 79 74 72 77 80 84 78 88 86 95 93 89 90 87 83 84 84 84 81
50 48 48 49 53 70 79 78 82 84 88 89 87 79 75 72 77 82 83 84 84 89 95 94 90 90 92 85 85 87 87 90
51 50 50 53 57 71 82 80 83 85 88 81 82 81 77 75 79 84 82 81 83 86 96 92 90 93 90 88 89 88 88 90
56 54 56 64 67 72 78 78 81 84 84 80 91 84 80 79 81 82 80 82 83 89 94 92 93 93 92 91 88 84 88 88
66 68 71 72 71 79 81 82 82 85 84 84 90 86 82 82 82 81 81 87 86 87 90 91 91 90 90 90 87 83 85 90
79 78 78 78 81 83 83 84 85 86 83 87 90 89 85 84 82 80 78 82 90 86 90 91 90 90 88 85 82 78 77 83
84 86 84 87 90 86 84 86 86 87 83 84 90 91 84 81 79 78 78 76 84 88 90 90 91 90 88 83 85 84 79 80
87 91 91 87 90 88 86 88 89 87 85 84 87 86 83 80 80 78 76 77 74 77 83 85 88 89 88 92 86 87 88 88
84 86 89 87 88 91 96 93 94 88 86 88 84 85 85 84 81 79 79 77 73 76 80 82 84 77 97 98 92 90 88 88
88 88 91 90 88 89 94 96 95 92 92 90 88 87 86 85 81 78 77 77 75 75 78 81 85 82 97 97 97 74 83 86
89 90 90 91 86 85 87 93 96 95 92 90 88 90 89 86 82 81 81 77 83 81 82 83 85 86 96 96 96 78 78 77

GFSFLT1_sfc_rhum_111.txt.gz
RH
12 12 12 11 12 15 19 24 38 50 52 56 50 55 56 55 57 63 70 72 74 79 68 76 80 91 96 96 97 98 96 96
12 12 14 16 18 19 19 22 31 42 47 51 57 79 76 70 53 56 58 64 73 80 75 76 90 89 94 95 97 97 98 96
12 12 15 22 23 24 25 24 27 31 38 44 66 78 77 74 65 61 58 71 72 74 77 95 96 96 95 95 96 98 96 97
10 13 21 24 26 27 26 26 27 32 40 52 73 76 77 84 84 70 67 70 68 75 74 90 96 94 96 95 95 90 95 98
12 18 22 24 28 29 33 31 30 32 42 53 75 74 77 72 75 67 66 69 70 69 83 91 96 95 95 94 92 90 91 93
19 21 21 21 23 29 37 38 35 34 39 51 70 77 64 57 62 67 73 74 78 74 82 93 96 96 92 93 96 94 93 91
20 20 21 20 24 31 36 39 39 40 42 51 73 77 62 52 56 60 69 79 78 84 85 90 88 90 92 92 92 94 94 91
23 21 21 23 26 30 34 32 40 43 50 54 77 76 69 55 56 59 66 70 82 89 93 91 91 90 90 90 93 93 92 95
22 23 27 28 29 32 37 38 36 42 50 68 70 76 71 60 57 55 60 63 68 89 91 91 91 89 88 91 94 94 92 95
26 29 33 36 37 40 40 45 42 40 50 72 74 77 74 64 58 54 55 59 57 74 86 86 88 89 87 91 94 93 92 90
30 31 36 39 40 44 45 52 47 42 52 72 77 80 69 66 59 59 57 61 65 85 92 92 93 93 92 92 92 91 92 92
31 34 37 39 43 44 51 61 52 44 64 73 80 82 73 68 62 60 60 65 67 67 79 88 92 93 93 95 94 93 96 94
42 40 41 42 46 49 56 69 72 66 74 82 86 84 79 69 66 64 65 69 61 60 71 88 91 92 92 93 95 93 94 98
46 46 48 49 50 55 64 74 87 78 80 87 87 88 84 73 68 68 72 68 66 64 72 80 88 92 93 91 90 91 93 91
53 53 55 53 55 62 74 82 88 87 84 86 92 89 82 74 69 70 77 66 66 67 73 78 88 92 93 92 92 93 94 93
59 63 65 59 62 69 80 83 85 90 89 92 93 90 81 76 72 72 77 69 66 68 74 74 80 84 84 89 87 90 92 93
64 64 67 69 72 80 84 86 86 92 93 94 92 94 85 75 75 77 80 77 66 72 76 79 80 68 97 99 90 87 87 90
72 76 75 78 82 87 91 88 86 91 94 93 94 92 84 79 77 77 75 78 79 72 69 72 74 71 98 99 98 82 86 85
83 82 81 83 86 88 91 87 87 95 96 95 94 88 80 77 76 78 78 71 78 81 83 81 76 76 100 100 100 84 89 82

GFSFLT1_sfc_rhum_114.txt.gz
RH
13 13 13 14 15 26 34 50 60 72 74 74 70 72 70 70 69 69 77 75 84 87 82 87 90 91 96 96 97 96 96 97
15 20 23 27 28 29 30 36 59 65 68 74 72 72 71 70 70 75 79 79 86 84 83 89 89 94 97 95 98 98 99 98
16 18 27 28 28 34 36 35 37 49 57 61 66 67 74 72 77 75 73 78 81 78 88 92 93 95 96 97 96 99 98 97
16 17 30 37 36 40 35 35 37 43 43 57 70 85 86 86 84 75 74 76 77 81 87 96 95 94 96 97 94 95 97 98
13 18 30 35 38 39 38 42 41 40 50 52 80 84 86 81 83 78 76 80 80 80 83 95 95 95 96 96 95 93 91 96
16 24 26 28 36 43 43 46 47 47 49 57 79 80 75 76 80 85 83 79 80 77 84 95 95 96 95 95 96 94 91 91
25 25 26 29 35 44 46 46 42 49 54 60 74 81 77 77 81 83 84 86 84 84 87 92 96 96 96 94 94 93 93 91
27 25 25 33 40 44 44 43 43 46 59 61 70 78 79 76 73 76 78 86 90 89 90 95 96 96 93 92 94 94 93 94
29 30 37 40 44 46 50 47 46 47 53 63 68 78 78 74 72 69 78 80 84 86 89 91 93 94 94 93 95 95 93 93
31 34 42 45 47 51 56 53 51 52 57 58 71 81 83 75 74 77 73 72 72 84 90 90 92 91 94 95 96 96 95 94
34 38 45 44 47 54 57 55 55 60 65 66 71 77 77 78 79 79 74 73 74 90 92 93 94 94 93 95 96 95 95 95
44 42 43 46 49 50 54 57 62 67 72 79 74 76 77 79 82 80 74 74 78 85 90 90 93 94 93 95 96 95 95 94
47 48 50 50 52 52 56 62 66 74 80 76 80 84 81 82 88 80 79 74 77 85 90 92 95 95 95 96 97 96 95 95
50 50 53 55 57 58 61 66 73 78 81 86 92 91 86 90 92 80 77 75 75 72 85 89 91 94 96 95 94 96 96 94
56 58 59 61 63 66 69 72 75 80 81 90 94 92 88 88 88 79 78 77 70 70 85 91 93 94 94 94 93 94 95 95
60 65 68 66 70 74 74 77 79 81 87 90 94 91 89 88 87 80 78 82 75 74 82 87 90 92 90 94 92 93 94 97
66 69 72 74 77 81 81 81 83 86 89 92 94 93 95 94 88 86 82 85 81 76 74 89 92 84 100 100 95 94 95 96
75 79 80 82 86 85 88 85 83 87 90 94 94 93 96 95 88 86 88 85 84 81 81 80 85 80 99 100 99 90 94 95
82 82 83 85 85 90 88 84 84 89 90 91 95 95 95 95 92 90 89 88 90 86 86 86 87 90 100 100 100 91 93 92

GFSFLT1_sfc_rhum_117.txt.gz
RH
16 19 19 14 17 25 54 59 68 73 78 88 87 88 93 91 89 88 90 87 93 96 95 96 96 97 98 98 97 99 96 94
15 16 19 22 31 36 60 74 76 82 90 93 96 85 86 95 88 86 90 85 88 94 90 94 96 97 96 97 98 97 100 98
15 16 29 28 37 42 42 64 85 82 81 80 86 94 91 79 91 91 86 89 93 89 90 94 97 98 97 97 96 99 99 98
22 28 34 40 42 40 39 44 53 72 76 85 95 95 96 95 95 95 91 89 92 91 88 94 96 97 97 97 96 96 98 99
21 33 41 41 44 48 46 51 52 51 56 79 90 92 97 96 96 93 81 90 88 86 89 95 96 97 96 94 94 94 93 95
24 32 36 39 47 56 55 53 52 54 56 67 92 94 89 96 97 94 90 91 86 86 88 96 97 97 97 96 97 96 93 94
29 31 39 50 52 54 54 56 54 56 64 69 91 94 94 96 96 96 93 86 92 90 90 96 94 94 96 96 96 96 95 93
35 46 52 53 56 58 52 54 54 57 64 66 75 93 93 91 92 92 94 86 87 91 92 97 96 93 94 94 96 96 95 94
48 51 51 52 57 59 60 56 56 57 63 68 73 73 91 86 82 84 88 85 86 89 94 94 95 94 94 95 96 96 94 95
49 48 51 56 58 62 66 63 60 62 67 71 75 76 86 88 85 82 92 81 81 92 95 96 96 96 96 96 97 97 96 95
53 56 56 56 58 65 67 67 65 65 66 73 73 79 81 88 89 91 92 84 83 92 95 96 97 97 96 96 97 96 97 96
59 58 57 58 59 61 64 66 66 68 69 75 79 88 84 88 92 93 91 82 82 90 95 94 97 97 96 97 97 97 98 97
60 60 62 63 64 64 67 71 72 73 74 77 78 86 86 90 93 94 89 82 89 91 94 92 95 96 97 98 98 97 97 98
62 66 68 67 68 71 72 74 78 79 78 80 81 88 94 94 93 94 86 86 90 91 94 94 96 95 96 96 95 96 96 95
68 72 74 73 74 77 78 80 80 79 78 83 85 88 94 95 96 95 86 84 89 93 93 93 94 97 96 96 96 97 97 95
74 78 78 77 80 82 82 83 82 81 83 84 87 86 92 94 96 95 89 85 79 92 93 93 93 94 94 96 96 97 98 99
77 78 77 80 82 84 85 87 84 84 84 86 84 88 93 94 95 95 95 90 82 88 94 96 97 92 100 100 97 96 96 98
81 83 83 85 88 87 93 88 81 84 85 82 83 90 96 96 93 91 94 91 88 88 94 94 96 92 100 100 100 95 97 98
87 87 86 88 88 88 89 82 82 83 85 86 86 89 95 97 94 93 95 93 91 90 92 92 93 94 100 100 100 96 97 97

GFSFLT1_sfc_rhum_123.txt.gz
RH
19 22 23 29 53 61 68 79 87 87 85 93 98 99 98 98 98 96 96 95 96 97 98 98 97 98 99 99 98 99 98 96
19 20 22 23 27 54 72 75 81 88 86 93 98 97 98 98 98 95 96 95 96 96 98 97 96 96 98 98 99 98 99 98
22 21 23 25 27 29 64 69 75 82 78 77 88 90 97 94 97 96 94 95 96 95 96 97 96 96 97 98 96 99 99 98
21 22 23 30 35 47 52 62 69 79 81 96 99 97 98 99 100 98 96 96 96 94 96 96 97 96 97 97 96 96 99 99
26 47 59 75 84 85 87 88 90 95 96 96 95 95 95 94 92 95 98 96 95 95 95 96 96 97 96 96 96 95 94 98
67 65 64 66 64 65 66 70 72 76 87 90 97 97 98 98 97 96 98 98 95 94 94 96 97 98 96 96 98 97 94 94
63 59 58 62 62 62 63 65 67 72 78 81 83 88 91 97 98 98 98 98 98 96 94 95 93 96 97 97 96 96 96 93
66 71 71 71 71 67 64 69 70 75 76 78 80 84 86 87 93 98 98 99 99 97 97 97 96 95 95 94 96 96 96 95
76 75 73 71 71 72 69 68 71 70 73 77 79 80 82 87 92 96 98 97 95 94 97 96 96 96 96 96 96 95 95 96
78 74 73 71 71 73 72 71 72 72 74 77 80 81 83 87 88 88 88 94 94 94 96 96 96 96 95 96 96 97 97 96
72 71 73 71 70 70 71 71 73 72 72 77 75 82 82 82 84 91 91 88 93 94 95 96 96 96 96 96 96 96 97 98
74 73 71 72 71 72 74 76 77 78 78 79 82 82 82 83 86 86 88 89 89 92 92 94 95 96 97 97 96 97 98 98
74 73 73 73 78 78 82 83 85 84 81 82 84 82 81 86 87 86 84 84 91 85 91 94 94 93 95 97 97 97 98 98
78 75 77 77 78 79 80 80 80 82 80 82 83 85 85 86 86 86 84 85 90 83 92 95 95 95 97 96 96 97 96 96
82 84 83 81 80 82 81 82 82 83 80 81 83 85 86 86 85 85 86 86 92 92 93 94 94 94 96 97 97 97 97 96
88 86 83 83 84 82 81 82 81 81 83 85 83 81 80 83 84 84 85 88 90 94 94 94 93 95 97 98 97 97 98 98
87 82 82 84 85 86 84 84 82 81 80 82 81 80 80 82 84 84 83 87 91 95 96 95 98 96 100 100 97 96 96 98
89 85 87 85 86 85 91 87 82 82 81 80 80 81 83 83 82 82 84 89 91 95 95 96 98 96 100 100 100 96 97 97
88 86 86 90 87 89 87 83 82 82 83 83 82 84 84 83 85 86 87 89 92 96 96 97 97 97 100 100 100 98 98 98

GFSFLT1_sfc_rhum_129.txt.gz
RH
14 14 15 18 33 59 64 67 74 80 77 80 78 83 84 82 81 81 82 82 86 89 84 89 82 87 90 88 88 87 84 81
17 17 19 22 34 61 67 71 72 76 75 77 77 84 80 86 73 78 84 84 86 87 81 82 87 88 90 90 87 91 93 93
22 19 19 25 28 56 66 70 72 70 65 68 74 78 77 70 77 75 77 80 86 86 85 87 89 90 93 92 89 95 94 95
24 21 20 24 34 40 61 66 71 73 67 72 75 82 81 86 87 79 80 77 78 81 84 86 89 89 94 95 91 88 96 98
23 22 18 24 34 40 53 63 67 74 75 78 80 74 76 78 72 88 87 82 81 78 84 87 90 91 93 92 93 90 87 97
22 19 19 63 70 53 62 75 73 78 79 80 83 82 80 80 87 90 93 95 97 97 98 99 94 95 92 92 94 92 87 86
53 63 65 66 67 72 75 76 80 83 88 88 86 87 88 93 91 96 94 93 94 93 94 95 97 96 93 94 91 91 90 85
78 74 71 71 70 69 67 68 72 73 79 81 82 84 88 90 87 88 86 83 88 90 88 92 93 93 94 94 93 94 92 91
81 78 76 75 72 70 69 64 66 69 72 71 73 79 78 74 75 72 77 83 83 83 87 89 91 93 96 95 95 94 94 94
87 85 84 79 74 79 77 70 68 69 73 74 73 71 70 70 71 69 68 70 67 72 91 95 94 94 94 95 95 93 92 94
85 84 83 80 77 77 76 70 68 69 68 71 70 70 71 69 70 73 72 72 72 73 75 77 90 92 93 95 95 92 93 90
86 82 81 80 78 76 74 71 71 71 68 70 71 71 72 71 73 74 75 74 72 73 73 74 74 78 91 95 95 93 95 92
95 88 79 82 82 80 80 76 74 74 72 71 73 73 71 74 74 74 75 74 72 72 73 75 73 76 73 89 95 95 94 93
99 98 97 90 87 86 81 79 77 75 71 71 74 76 78 76 76 75 75 75 73 73 72 76 77 76 76 77 88 93 92 89
97 96 97 98 88 82 81 81 87 87 77 74 76 77 75 73 73 75 76 75 76 72 73 75 78 80 82 78 75 92 91 88
96 97 96 91 89 85 79 80 79 76 73 75 76 75 73 74 76 75 76 78 76 74 73 73 75 78 87 87 81 91 92 86
88 86 89 89 87 85 80 80 81 78 76 76 74 74 73 75 75 75 75 76 77 78 77 75 77 74 95 100 95 91 92 91
90 84 88 91 89 86 86 81 79 80 77 72 74 74 74 76 74 73 77 81 82 83 82 81 80 84 98 100 100 92 95 92
83 88 87 88 84 85 85 81 79 77 77 75 75 77 77 76 76 77 80 83 86 87 86 85 86 84 98 100 100 95 96 92

GFSFLT1_sfc_rhum_132.txt.gz
RH
14 14 13 10 10 12 17 32 53 63 67 71 60 55 62 52 54 58 67 79 82 79 68 77 69 59 70 73 75 65 66 62
13 16 16 16 17 15 15 26 52 59 65 70 65 71 72 62 54 59 58 75 81 83 71 74 76 59 61 77 76 79 77 69
16 16 18 20 19 19 17 20 43 52 55 60 59 59 55 57 59 59 61 76 80 82 74 59 64 57 69 81 77 88 86 83
23 18 19 20 22 23 17 17 34 49 53 53 57 56 50 52 52 52 57 63 74 83 79 61 62 69 75 82 81 79 89 90
39 34 24 21 20 21 19 18 29 44 54 51 61 55 50 47 50 48 50 59 60 66 68 75 78 85 82 86 85 80 79 88
50 29 31 22 18 20 21 20 24 40 53 54 57 57 53 47 50 56 67 70 63 69 76 81 91 88 91 95 96 92 83 83
66 61 50 44 43 39 34 30 27 42 66 63 66 63 58 60 80 83 81 82 88 89 91 92 86 95 90 88 93 95 95 92
84 82 79 71 68 70 75 76 82 81 87 88 84 71 84 80 83 90 93 96 95 92 83 87 94 94 85 76 85 92 96 95
94 87 84 79 74 66 66 68 74 75 82 79 80 81 88 79 80 90 91 88 82 77 76 71 71 77 74 83 87 90 91 94
95 91 87 84 82 78 70 63 65 71 77 76 71 74 71 70 69 69 68 68 63 73 72 66 66 69 79 82 86 89 93 91
95 96 95 84 84 79 74 68 62 63 63 64 58 57 59 60 61 60 61 58 57 58 63 68 79 87 87 89 92 92 93 93
98 100 97 86 84 80 71 75 70 62 60 59 61 60 59 59 60 60 62 63 58 58 57 56 57 62 76 90 94 95 96 94
96 97 90 78 79 74 75 74 78 68 60 62 63 63 61 63 63 63 68 61 58 59 56 57 56 54 57 60 72 88 94 95
97 96 97 93 85 83 78 78 81 81 68 67 69 66 62 63 64 69 64 65 64 58 55 58 57 58 57 58 60 62 77 86
97 96 97 97 97 96 95 90 85 82 73 70 72 68 68 67 66 67 64 62 62 60 59 59 61 59 57 59 58 60 63 71
98 98 97 98 96 98 95 95 86 78 76 76 73 70 64 62 63 62 63 65 63 61 64 63 62 58 55 62 68 72 64 68
93 94 91 91 87 86 82 83 77 75 73 73 67 64 63 67 66 62 63 66 66 70 71 71 71 59 75 88 90 87 78 69
80 77 78 81 83 82 80 71 67 67 65 65 65 67 65 68 62 60 65 70 72 73 74 72 75 75 85 90 94 84 87 82
71 74 75 78 78 76 74 67 65 67 65 63 64 65 64 62 63 66 69 69 72 76 77 77 81 77 91 95 95 88 93 93

GFSFLT1_sfc_rhum_135.txt.gz
RH
15 12 11 10 11 13 14 16 23 52 57 63 56 54 54 50 57 52 60 78 75 62 53 66 64 60 67 64 58 56 52 53
30 31 20 14 16 16 17 19 24 34 53 64 62 58 55 55 50 56 55 73 80 75 60 64 73 59 63 80 77 63 60 56
38 37 36 34 28 21 20 19 21 20 44 54 58 57 52 51 49 52 55 62 80 83 79 59 77 63 61 71 83 84 77 77
48 48 46 45 40 32 18 18 19 21 24 53 60 58 56 59 49 47 54 56 80 84 81 65 62 64 57 73 83 85 84 85
57 61 59 51 49 34 25 18 18 20 24 47 64 57 55 54 50 53 52 59 66 79 82 73 64 59 59 82 87 84 80 81
61 72 70 54 53 52 37 22 18 21 22 46 61 67 53 48 48 56 55 62 63 68 74 75 71 80 90 92 93 94 92 90
56 66 73 67 56 59 61 55 20 22 25 45 59 68 59 47 50 50 54 58 62 64 68 74 81 86 85 91 92 92 91 91
67 74 85 90 76 69 72 68 67 71 66 72 61 68 65 52 51 50 59 70 67 68 72 84 85 85 81 86 90 91 90 86
74 76 90 95 94 84 83 77 82 82 86 93 89 90 82 64 56 64 69 77 71 74 83 87 87 80 75 77 80 81 81 84
91 85 90 95 95 92 88 86 82 82 87 90 92 94 94 91 89 92 95 92 91 89 89 88 82 77 71 73 75 78 79 82
95 99 98 95 95 95 89 89 85 82 82 87 88 87 91 90 82 83 81 80 74 80 86 86 87 83 80 73 72 72 76 78
100 100 100 100 97 96 90 88 87 82 82 82 84 88 76 76 81 87 84 76 63 58 56 58 61 68 75 84 84 78 75 78
100 100 100 100 99 97 90 86 84 75 78 77 85 79 75 72 74 66 71 66 58 53 51 50 50 50 52 58 68 86 92 93
100 100 99 98 98 98 96 94 97 86 75 81 75 72 65 75 76 68 58 60 59 54 52 53 51 51 50 50 50 52 58 69
97 96 98 100 99 98 98 96 99 95 79 78 81 74 67 70 66 62 58 58 56 54 57 58 59 55 50 50 48 52 55 55
94 96 96 93 95 98 98 98 88 85 83 76 76 65 61 62 60 60 60 61 59 59 64 62 61 59 48 65 62 64 64 63
78 76 78 78 79 81 77 78 80 74 82 78 67 68 60 61 61 60 64 61 62 64 67 70 72 59 83 93 89 80 77 79
70 69 71 75 76 74 75 73 66 71 67 70 69 64 63 64 61 62 63 65 65 68 70 70 74 74 91 90 91 80 82 84
61 65 70 75 73 74 71 69 68 72 71 67 64 62 63 66 63 63 68 63 65 66 70 72 76 71 89 90 91 85 81 80

GFSFLT1_sfc_rhum_138.txt.gz
RH
33 36 38 38 40 43 36 26 36 44 38 74 69 75 60 61 61 54 69 72 72 77 73 78 78 80 82 76 81 83 79 77
35 40 42 46 50 51 52 56 48 32 30 71 77 70 75 75 60 67 71 78 78 76 76 79 74 76 78 82 84 85 84 81
41 41 45 54 59 57 54 53 58 33 22 26 72 76 77 75 66 67 67 76 79 78 79 72 75 75 82 83 84 92 89 85
48 46 49 55 61 62 56 58 57 44 29 25 40 74 78 80 76 66 68 77 80 77 79 79 81 77 82 88 82 83 87 93
51 51 52 53 61 66 64 63 62 56 32 27 42 59 75 66 74 62 65 67 81 80 80 78 83 79 79 84 84 85 88 89
58 56 55 52 58 69 69 70 66 66 74 38 34 52 71 73 76 72 66 68 81 82 82 79 80 83 80 88 91 92 90 90
62 63 60 61 61 72 76 73 72 72 76 79 63 52 60 76 74 78 74 72 85 85 85 81 79 83 88 92 91 92 91 90
76 79 80 74 71 74 81 83 82 77 80 85 84 88 61 66 73 75 69 72 74 84 85 84 84 84 89 90 91 89 88 88
83 85 88 86 81 80 86 89 88 83 87 87 86 88 91 86 84 69 62 64 71 78 82 82 82 82 87 88 90 92 91 93
88 86 91 85 86 88 88 92 95 88 89 90 88 92 92 93 96 96 73 68 75 75 81 81 82 85 89 92 90 88 91 92
90 95 98 90 88 93 88 93 96 93 89 90 88 89 90 92 95 96 96 93 94 95 95 96 93 92 88 85 84 87 89 89
98 100 98 97 94 94 97 94 96 96 90 88 89 90 89 90 95 94 95 92 86 81 80 85 96 99 98 96 91 86 89 90
93 95 98 96 97 99 100 97 98 98 96 86 90 87 89 91 94 94 90 91 88 89 88 85 76 72 76 80 88 92 94 93
90 90 98 99 98 99 100 100 100 100 96 89 89 91 93 93 95 94 93 93 76 77 80 86 86 80 71 68 69 70 72 77
89 89 90 90 94 99 100 100 100 100 97 89 90 95 91 94 87 89 90 94 91 74 71 74 75 69 71 74 72 79 78 73
83 86 86 86 87 87 87 92 95 99 99 96 94 83 90 89 87 81 86 85 88 86 80 75 72 67 72 80 77 78 79 80
66 67 75 79 78 82 79 78 83 84 86 89 91 90 79 76 82 80 86 83 78 76 72 74 76 66 87 88 86 82 81 82
62 64 70 78 80 80 79 76 73 77 82 76 81 76 73 76 70 70 69 74 75 76 76 73 73 73 82 81 85 79 81 84
58 63 72 76 74 78 76 74 76 78 78 78 75 79 77 76 76 73 69 67 71 70 76 76 73 69 84 84 85 78 82 82

GFSFLT1_sfc_rhum_141.txt.gz
RH
44 44 43 45 48 51 56 58 59 59 61 69 70 93 82 86 88 79 83 78 78 84 80 85 87 86 86 87 88 92 87 78
46 47 47 50 49 52 59 64 65 64 64 69 74 58 83 83 78 74 72 80 80 81 80 87 81 83 84 87 91 91 92 87
53 54 54 56 54 55 59 65 66 66 66 65 72 66 87 81 79 72 77 71 83 75 79 82 83 84 88 89 80 95 94 96
61 59 61 61 61 60 61 66 70 69 66 69 75 80 85 87 85 81 73 73 72 81 74 81 82 79 84 87 84 76 90 96
62 67 68 68 66 64 67 65 69 66 70 77 85 91 72 45 62 68 68 65 71 83 78 80 81 79 81 88 84 82 84 87
73 73 71 69 68 66 66 67 72 72 72 74 82 89 89 81 83 84 79 75 78 77 83 82 84 79 82 89 90 89 88 87
75 73 72 75 72 74 70 71 73 75 76 76 81 84 89 92 85 82 82 79 76 72 82 79 86 84 86 91 91 88 88 85
83 83 80 80 83 79 78 80 80 79 82 84 84 84 88 97 93 85 82 80 78 76 86 82 83 88 86 84 93 91 89 89
85 87 86 83 87 84 94 93 89 83 88 90 86 88 92 90 95 95 92 79 78 76 90 83 77 82 88 90 93 94 92 91
89 86 86 92 96 95 96 96 95 93 90 92 90 88 89 90 92 95 96 94 88 91 93 93 84 76 88 93 93 94 92 94
87 90 95 96 96 96 96 95 96 94 92 91 93 92 90 87 91 92 94 94 91 90 92 90 90 86 84 91 92 91 94 98
88 90 95 99 94 92 97 96 96 96 93 92 96 96 92 90 91 91 91 92 92 90 89 93 91 88 90 94 94 95 94 96
85 89 88 88 88 92 98 96 95 97 97 96 97 97 95 92 92 90 89 91 92 90 91 94 92 92 94 96 95 95 98 98
84 88 88 88 88 91 93 98 98 98 98 99 98 97 93 96 94 92 89 89 92 92 95 94 90 88 89 86 89 87 89 90
80 87 88 88 88 90 88 91 98 99 99 100 100 100 97 92 94 93 92 90 92 92 96 93 88 84 80 80 81 86 87 82
81 86 89 86 88 89 85 85 84 95 99 98 98 99 100 96 90 89 93 96 93 95 94 94 92 80 78 85 80 82 83 84
72 78 80 80 80 86 81 81 82 80 89 96 94 92 82 94 88 90 91 98 100 98 98 97 100 92 95 88 86 83 80 82
70 79 78 79 79 84 82 80 76 78 80 79 83 78 80 79 79 82 85 90 97 99 96 95 97 95 97 96 87 79 82 83
67 82 78 78 79 81 77 79 79 81 81 79 78 79 76 76 75 76 78 75 80 84 87 84 89 85 88 86 84 81 81 81

GFSFLT1_sfc_rhum_144.txt.gz
RH
53 53 53 54 56 54 56 57 61 66 69 69 69 75 75 79 84 86 76 82 80 90 82 86 92 90 90 86 86 88 85 85
53 54 58 60 59 60 60 64 66 68 74 77 76 79 74 83 76 77 79 77 84 88 86 85 89 87 87 86 87 92 89 87
61 61 64 65 65 65 64 65 67 66 69 71 74 76 82 83 82 74 79 79 78 79 81 86 85 82 88 87 84 86 88 91
70 68 70 70 71 71 68 66 66 63 68 70 71 73 81 87 82 78 76 84 79 79 77 89 88 83 85 88 82 80 86 95
73 74 74 75 75 72 72 68 68 64 67 74 79 81 82 76 83 81 80 68 81 78 80 80 91 87 82 84 82 80 77 83
80 80 76 72 74 75 71 67 69 69 70 73 81 87 84 81 81 89 87 80 81 80 78 84 91 93 84 84 86 87 82 82
80 76 70 71 71 71 70 72 73 73 74 77 80 90 92 87 84 86 93 88 82 81 83 88 88 92 94 89 88 88 83 81
88 79 77 77 76 75 75 79 84 80 84 85 83 89 90 91 86 88 91 92 88 83 92 91 90 90 89 90 91 90 88 84
88 77 80 80 81 79 79 81 92 88 92 93 87 88 91 90 89 91 88 87 89 95 96 93 84 79 93 91 86 88 90 86
87 85 77 82 82 83 88 86 88 92 95 94 86 86 90 92 91 90 91 90 90 90 92 91 93 93 86 90 92 88 92 89
78 88 90 88 86 85 86 85 90 90 92 95 88 90 95 95 92 91 90 89 94 94 92 92 93 94 92 96 93 91 93 93
79 91 91 90 88 82 80 85 88 94 96 96 96 94 96 96 96 94 91 92 91 88 86 89 90 96 96 93 92 89 96 96
86 93 93 90 90 87 87 87 88 92 97 95 92 92 96 95 96 96 96 91 90 87 84 85 88 87 88 86 92 85 96 98
91 93 93 87 90 90 90 87 89 89 91 93 92 96 97 97 96 99 96 95 92 90 87 91 95 98 92 93 94 94 95 95
94 94 93 87 89 90 88 87 86 87 89 90 94 98 99 99 97 98 100 94 91 88 89 90 92 94 100 100 99 97 91 93
94 96 92 86 88 89 85 86 84 85 86 86 91 89 99 98 97 97 98 97 92 86 86 86 90 95 98 99 99 98 94 89
85 76 82 80 81 84 81 82 84 82 83 82 82 80 82 90 90 96 94 98 98 96 93 91 93 95 94 98 99 100 99 92
84 74 80 80 82 79 83 82 78 81 81 79 81 77 76 76 76 78 79 88 90 93 94 91 93 94 95 96 98 100 100 98
84 88 85 85 80 82 82 83 80 84 82 83 82 77 76 74 73 75 74 74 76 79 84 86 90 91 92 93 95 98 98 97

GFSFLT1_sfc_rhum_147.txt.gz
RH
58 59 60 61 63 62 62 64 66 67 68 70 73 74 72 74 82 85 81 79 81 86 86 92 90 90 91 93 91 92 85 85
60 60 62 66 65 68 68 70 69 70 71 74 73 75 71 73 75 79 83 84 79 88 89 88 91 92 89 88 94 94 92 90
65 66 68 70 70 73 72 71 67 69 70 69 70 72 74 69 72 78 78 82 84 83 87 87 86 91 88 90 94 94 94 93
73 72 75 72 74 77 71 69 67 65 66 69 70 71 74 76 73 71 75 79 84 86 80 87 85 91 97 91 93 92 95 94
77 79 77 76 75 73 71 68 69 64 66 72 78 79 86 83 81 76 69 70 80 85 84 84 87 85 89 94 92 92 91 94
85 76 69 72 73 76 70 67 67 68 70 73 81 83 84 84 85 84 80 75 78 82 86 86 91 88 84 94 96 95 93 88
83 66 66 68 68 70 69 69 69 68 71 74 77 84 92 92 90 90 86 85 79 81 86 87 90 92 92 88 92 94 96 90
85 76 71 69 72 72 72 72 73 71 74 78 82 88 90 93 91 91 92 89 80 80 84 93 94 95 93 92 95 90 88 92
77 89 84 87 82 78 77 75 79 76 77 80 80 87 92 94 92 90 91 91 90 88 88 88 90 89 89 95 95 92 91 92
78 90 89 90 89 85 84 78 79 79 82 84 88 86 93 96 90 90 91 90 86 87 90 93 91 87 89 94 97 95 93 90
82 94 92 90 89 85 82 80 77 78 80 82 84 90 91 90 88 93 91 91 91 88 88 89 89 91 89 90 92 87 89 91
93 95 94 93 91 88 85 84 78 79 82 79 85 91 89 89 94 88 88 90 91 88 86 88 90 89 90 95 90 94 92 84
95 95 94 92 92 92 91 86 85 86 88 84 84 85 86 87 96 95 87 90 89 91 87 88 90 90 86 89 91 88 92 94
96 95 96 93 92 92 91 89 90 90 88 85 88 88 86 90 94 92 90 90 89 88 91 93 91 97 97 90 90 91 91 93
97 97 96 94 93 93 90 90 90 90 87 84 89 88 92 92 90 90 92 94 94 94 95 97 97 95 98 100 96 90 90 90
98 91 94 92 90 90 87 88 88 88 87 87 88 82 84 87 91 92 93 94 96 95 96 96 96 97 96 99 95 92 91 92
82 76 83 87 84 88 84 87 86 84 85 87 85 78 77 81 82 88 92 91 96 96 96 97 96 97 99 97 96 99 95 95
80 78 82 90 88 86 90 85 82 82 84 80 82 76 76 76 74 74 77 82 86 88 93 96 97 96 96 97 93 95 95 96
77 87 89 88 88 88 86 85 84 85 81 82 81 86 78 75 71 73 73 72 74 74 80 85 86 93 91 93 95 92 93 93

GFSFLT1_sfc_rhum_153.txt.gz
RH
54 55 55 53 54 57 58 59 62 61 59 59 57 58 58 57 56 57 67 64 68 68 68 73 76 78 84 90 92 88 87 93
54 57 55 56 57 60 60 61 63 59 58 61 63 65 60 60 56 62 64 66 71 71 69 73 78 85 83 85 92 94 96 93
56 55 55 57 58 62 62 60 59 57 56 59 63 64 60 62 61 65 64 67 72 67 77 78 80 84 83 87 85 93 94 90
58 57 58 55 59 62 61 60 58 61 64 61 64 64 65 66 70 70 67 68 72 73 76 82 84 82 88 87 88 87 96 93
58 56 56 57 61 62 58 60 58 59 65 67 74 77 79 72 72 70 68 68 70 70 77 81 85 85 88 90 82 90 89 93
62 59 57 57 61 59 59 60 60 64 67 70 75 77 76 70 74 75 72 71 70 72 79 83 86 87 88 90 91 91 90 90
62 56 57 57 58 60 59 62 61 65 66 69 74 77 80 80 79 79 76 71 72 72 76 82 84 86 88 90 89 91 93 92
63 59 60 61 63 62 62 64 64 66 68 69 71 72 76 80 80 81 84 80 75 76 74 83 84 84 84 85 90 92 90 94
69 66 66 67 68 67 67 66 68 67 73 71 69 70 75 78 81 82 85 83 81 74 74 76 77 78 80 83 88 91 91 92
76 71 71 73 74 73 75 74 69 71 72 72 67 71 74 77 79 79 83 80 76 77 74 74 77 79 80 83 89 90 91 91
79 83 83 78 77 76 73 74 72 72 73 68 66 69 71 74 75 78 78 78 80 82 78 78 75 78 79 82 87 86 88 89
89 89 89 87 86 82 80 80 79 77 73 69 70 71 70 72 75 76 78 77 75 75 75 77 79 80 78 81 85 85 90 89
90 87 88 90 91 90 89 86 82 84 83 74 73 72 70 73 74 74 74 75 75 73 75 73 74 75 85 86 85 84 89 91
93 87 92 88 90 92 92 87 85 86 82 80 77 75 74 77 77 79 77 73 75 75 76 77 81 90 91 84 88 85 84 87
90 87 92 91 89 90 92 86 90 86 81 84 88 87 81 81 77 80 85 81 81 87 88 88 94 88 88 90 85 88 85 81
90 89 89 83 89 90 82 81 79 80 80 81 83 76 84 78 78 78 84 83 82 83 85 86 91 92 97 96 89 87 93 91
78 72 70 67 68 72 69 71 75 70 73 75 75 66 60 68 72 74 74 76 80 81 86 88 92 91 77 88 93 95 90 94
74 70 65 67 67 67 68 67 65 67 68 69 69 55 53 54 54 54 60 63 69 75 85 88 90 91 77 76 84 96 93 95
69 71 66 67 66 66 64 63 64 66 67 67 67 59 50 51 50 50 52 48 52 51 64 73 80 85 76 75 74 88 93 94